GFSNIL_sfc_wetblb_003.txt.gz
Wetbulb
42.61 42.03 41.90 41.98 42.16 42.25 42.80 43.70 46.14 46.48 45.25 44.19 43.82 43.60 42.98 42.13 40.95 40.91 39.58 38.72 38.28 37.77
41.61 41.37 41.07 41.57 42.09 41.99 43.51 44.28 44.99 44.34 44.25 43.66 43.25 42.55 42.48 41.41 40.15 39.81 39.62 39.07 39.07 38.00
41.24 41.73 41.79 41.88 41.30 41.92 43.06 44.14 44.28 43.46 42.81 42.97 43.13 42.09 40.74 40.35 39.70 38.71 39.30 38.43 38.05 36.64
41.30 41.64 41.67 41.23 41.33 41.46 42.41 43.17 42.84 42.36 42.25 41.80 40.63 40.56 40.00 39.10 38.12 37.47 38.19 37.13 35.54 34.87
41.00 40.99 40.50 40.36 40.49 40.78 40.50 40.97 40.53 40.95 40.78 40.59 40.06 39.22 38.37 37.76 37.65 36.80 35.57 35.39 34.34 33.95
39.96 39.92 39.86 39.71 39.89 39.88 39.62 39.93 40.86 40.55 38.79 38.36 38.35 37.47 37.02 36.20 36.03 35.24 34.80 34.12 33.22 32.66
39.40 39.57 39.58 39.45 39.56 39.60 40.09 39.95 39.88 38.85 38.87 38.18 36.30 35.84 35.68 35.06 34.45 33.84 33.45 33.25 32.69 32.08
39.65 39.74 39.48 39.17 39.01 39.23 39.68 40.30 39.08 38.01 35.21 35.21 35.06 34.08 34.70 33.75 33.40 33.35 32.74 32.45 31.47 31.05
38.94 39.13 38.84 38.47 38.56 39.08 39.49 39.65 37.01 36.33 34.92 33.72 33.17 33.00 32.76 32.25 31.87 30.18 28.92 27.82 28.25 28.13
37.92 38.11 38.12 37.72 37.49 37.96 38.53 38.94 37.93 34.51 33.92 33.59 33.43 31.06 30.11 28.23 29.30 28.02 27.42 26.56 25.81 25.81
37.66 37.30 37.49 37.06 36.86 37.82 38.03 37.00 36.67 33.93 33.22 32.61 30.60 28.65 28.20 27.36 28.66 27.62 26.50 25.68 25.56 25.13
37.25 36.79 36.64 36.43 36.94 36.98 35.89 35.88 34.97 33.43 31.57 29.53 29.30 27.07 26.78 27.02 27.25 25.88 25.12 25.67 25.99 25.37
37.18 36.89 36.35 36.56 36.45 35.83 34.96 32.52 32.97 30.22 29.25 25.89 27.50 25.14 25.80 26.23 26.79 24.75 24.88 25.48 25.50 23.94
37.00 36.27 36.53 36.29 35.40 33.96 32.83 31.76 30.57 28.45 28.04 27.15 26.58 26.58 24.73 25.28 26.31 25.16 24.48 23.55 23.53 24.72

GFSNIL_sfc_wetblb_006.txt.gz
Wetbulb
46.59 46.24 45.81 45.65 45.33 44.91 44.69 45.54 47.64 48.77 49.72 49.71 48.00 45.63 45.04 46.00 44.44 43.32 42.12 40.98 40.79 40.40
46.52 45.95 45.62 45.91 46.04 45.08 45.45 45.63 47.29 48.87 48.24 47.06 45.63 45.18 45.63 44.44 43.08 42.47 41.78 41.34 40.84 40.01
45.97 46.02 46.20 45.78 44.61 44.55 45.13 45.64 46.61 47.16 46.65 44.83 44.99 45.15 44.41 42.92 42.23 41.04 40.66 40.50 39.70 39.22
46.39 45.51 45.52 44.58 44.32 44.10 44.57 44.53 44.77 45.68 45.56 44.54 43.76 44.09 43.28 41.72 40.87 39.68 39.76 40.11 39.20 38.17
45.79 44.90 44.20 43.98 43.60 44.07 43.60 44.06 43.65 43.83 43.74 43.70 43.30 42.97 41.11 40.13 40.11 39.51 38.71 38.71 38.23 37.34
44.99 44.38 43.47 43.41 43.23 43.45 43.30 43.36 43.59 43.51 42.61 41.70 41.58 40.74 40.34 40.36 39.75 39.11 38.61 38.09 37.12 36.63
43.70 43.51 43.47 43.31 42.88 42.71 42.99 42.69 42.85 42.89 42.78 41.94 40.73 39.99 39.86 39.33 38.97 38.50 38.07 37.57 37.04 36.18
43.52 43.76 43.30 42.65 42.36 42.40 42.70 42.66 43.11 41.47 40.59 40.34 39.72 38.18 38.17 37.97 38.25 37.49 35.99 35.69 34.62 33.99
42.81 42.72 42.53 42.07 41.78 41.86 41.78 42.16 42.28 41.86 40.73 39.99 38.57 32.97 31.27 31.59 35.38 35.00 33.84 32.59 32.48 32.43
41.69 41.52 41.67 41.47 41.44 40.82 41.00 41.63 41.10 41.10 40.32 39.24 38.84 31.15 29.28 28.62 34.10 33.81 32.79 31.57 30.97 30.34
41.19 40.74 41.03 41.13 40.81 40.95 41.00 40.43 39.70 39.64 39.63 38.80 35.51 28.65 27.71 27.74 33.46 32.90 31.87 30.96 30.33 30.11
40.28 40.36 40.36 40.08 40.73 41.17 40.46 39.69 39.29 39.09 38.23 36.67 34.99 27.34 26.73 27.69 32.19 31.05 30.14 30.31 30.29 28.81
40.55 39.97 39.69 40.29 40.61 41.11 40.38 38.93 38.01 36.71 36.59 30.00 33.24 26.07 25.97 27.53 31.44 29.31 29.18 29.91 29.14 26.40
40.11 39.85 40.29 40.61 41.03 40.51 39.65 38.11 36.67 34.17 34.48 33.59 32.04 31.14 25.47 25.39 29.47 29.27 27.95 28.17 28.23 28.53

GFSNIL_sfc_wetblb_009.txt.gz
Wetbulb
48.17 47.81 47.75 47.09 46.67 45.90 45.54 45.92 47.01 47.71 48.68 48.88 48.78 47.29 47.06 46.07 45.72 44.84 43.44 42.32 41.66 40.84
47.96 48.07 47.38 46.75 46.89 45.66 45.98 45.46 46.20 47.23 47.63 47.96 47.29 46.80 46.58 45.35 44.35 44.12 42.90 42.07 41.41 40.32
47.90 47.92 48.16 47.27 45.53 45.07 45.43 45.46 45.39 45.63 46.38 46.11 46.49 46.41 45.16 43.98 43.94 42.25 42.01 40.79 40.31 40.08
47.59 47.52 47.42 46.58 45.21 44.96 45.12 44.85 44.47 44.42 44.82 44.72 43.85 44.45 43.82 43.22 42.89 41.28 40.92 40.87 39.67 38.97
47.66 47.04 46.20 45.51 44.85 44.89 44.12 44.51 44.11 44.12 43.83 43.66 43.25 42.98 41.89 41.23 41.20 40.28 39.42 39.36 38.92 37.98
46.85 46.37 45.42 44.96 44.89 44.43 43.82 43.62 44.01 43.80 43.36 42.80 42.67 41.97 41.99 40.93 40.33 39.95 39.66 38.94 38.10 37.42
46.15 45.96 45.23 45.19 44.47 43.64 43.20 42.91 43.30 43.59 42.85 41.93 41.62 40.94 40.44 40.13 39.61 39.37 38.90 38.59 37.51 36.36
46.04 45.67 45.02 44.33 43.90 43.32 42.94 42.97 43.19 42.54 42.68 42.14 41.55 39.91 38.84 39.01 38.71 37.82 37.13 36.92 36.38 35.53
45.07 44.26 43.92 43.66 43.27 42.78 42.36 42.43 42.49 41.90 41.32 41.14 40.27 32.68 31.64 31.10 35.78 36.41 35.79 34.72 34.60 34.25
43.67 42.65 42.73 42.99 42.34 41.86 42.05 42.26 41.74 41.40 40.90 40.73 40.23 32.18 29.92 29.00 33.57 35.47 35.18 34.13 32.98 32.34
42.67 41.94 42.17 42.03 41.70 41.96 42.35 41.73 40.98 40.41 40.33 39.78 35.68 30.46 28.82 28.28 32.82 35.29 34.56 33.34 32.64 31.81
41.66 41.03 41.27 40.88 41.03 41.72 41.77 41.35 40.93 40.42 39.40 38.68 35.48 29.77 28.19 27.77 33.45 33.54 32.45 32.57 32.40 30.97
41.44 40.94 40.44 40.62 40.59 41.40 41.63 40.69 40.37 39.32 38.78 31.90 36.49 28.83 27.86 27.73 32.37 31.39 31.06 31.77 31.63 28.69
41.07 40.74 40.74 40.62 40.78 40.59 40.39 40.47 39.87 37.38 37.50 36.98 34.94 33.02 28.16 27.10 29.64 30.69 29.49 29.17 29.74 30.70

GFSNIL_sfc_wetblb_012.txt.gz
Wetbulb
48.38 46.85 46.41 45.83 45.07 44.10 42.93 43.05 43.59 44.08 44.90 45.61 45.94 44.24 44.06 43.28 42.71 42.24 40.98 38.24 38.06 36.53
47.54 47.05 46.16 46.24 45.50 43.89 43.40 43.49 43.19 43.75 43.85 44.75 44.13 43.96 43.20 42.56 41.46 39.64 39.75 37.51 38.77 36.18
47.35 47.45 47.08 45.40 43.72 42.79 42.93 43.23 43.11 42.93 42.62 42.98 43.62 44.04 42.62 41.80 41.38 39.44 38.36 39.33 37.67 35.91
46.61 46.93 46.62 44.83 43.46 42.71 42.77 42.88 42.38 42.50 42.22 41.86 41.60 41.56 40.45 40.19 39.34 38.98 37.52 38.69 35.97 36.26
47.39 47.04 45.46 44.53 43.47 42.94 42.11 42.57 41.99 42.23 41.88 41.99 41.69 40.46 39.72 38.67 38.30 37.52 36.34 36.80 36.48 35.07
46.52 46.87 44.89 43.61 43.40 43.02 42.06 41.51 41.45 41.94 41.49 41.33 40.59 40.03 39.68 38.83 38.11 37.16 36.65 36.54 34.57 34.84
45.57 45.91 44.47 43.67 43.14 42.83 42.02 40.79 40.83 41.48 41.90 40.96 39.90 39.74 39.07 38.09 36.44 35.97 36.16 35.51 34.47 33.15
45.60 45.19 44.62 43.61 43.59 42.83 41.97 41.19 41.14 40.68 41.08 40.48 40.30 39.96 35.67 35.55 34.13 33.29 32.85 33.13 33.77 32.11
45.00 44.61 43.10 42.86 42.77 42.50 41.54 40.90 40.13 39.73 39.91 39.02 40.66 33.79 32.86 32.34 30.28 32.24 32.12 30.95 30.70 30.65
44.15 42.18 42.05 42.24 41.98 40.82 40.07 40.50 39.97 39.55 38.87 37.69 34.33 33.38 31.87 30.06 28.64 30.30 31.09 30.14 28.87 29.41
42.65 42.09 42.09 41.45 40.63 40.47 40.37 39.75 39.09 38.63 38.50 37.79 34.19 32.80 31.20 29.47 27.22 29.57 30.27 28.93 28.32 27.38
42.03 40.61 40.50 39.74 39.47 39.38 39.25 38.60 38.68 38.99 37.71 36.36 31.08 31.61 30.08 28.13 27.55 29.36 28.65 29.96 29.40 28.08
40.79 40.10 39.13 38.79 38.78 39.00 38.81 38.45 38.79 37.61 36.74 33.26 30.10 31.00 29.68 27.98 27.01 27.33 27.49 27.63 27.84 28.92
40.51 39.16 39.37 38.78 38.86 37.99 37.33 37.09 34.86 33.08 33.56 33.18 31.52 28.84 30.19 29.00 26.22 26.78 26.46 25.82 25.39 26.29

GFSNIL_sfc_wetblb_015.txt.gz
Wetbulb
42.80 41.75 41.41 40.92 40.06 39.99 39.34 39.13 39.45 39.97 40.63 41.32 43.07 41.78 41.38 40.34 39.78 39.74 38.07 37.63 35.74 35.50
42.57 42.26 41.59 41.30 41.50 39.88 39.93 41.25 39.74 39.58 39.71 39.97 41.17 41.22 41.26 39.95 39.40 38.59 36.69 35.57 34.68 36.46
42.47 42.67 42.22 41.06 40.03 40.78 41.28 39.69 39.44 38.98 38.97 39.20 39.14 39.31 40.46 38.90 38.51 37.40 38.22 36.83 36.02 36.00
42.46 43.39 42.52 41.51 40.76 40.76 39.55 41.48 39.32 39.57 39.29 39.21 38.65 38.25 36.75 36.41 36.15 36.52 35.16 35.88 35.10 34.32
43.59 43.38 42.76 42.52 41.54 41.02 39.73 39.57 38.99 39.26 39.13 39.75 39.49 38.43 37.87 37.20 36.22 35.61 35.65 35.70 34.60 33.78
44.62 44.59 43.29 42.48 41.56 40.61 39.60 38.42 39.99 39.43 39.14 39.43 38.93 37.98 37.81 37.00 36.07 35.12 35.47 35.17 33.41 32.78
44.82 44.54 43.40 42.19 41.01 40.14 39.90 39.38 39.14 39.07 40.01 39.78 39.00 38.58 37.34 36.10 34.37 34.13 33.78 33.37 32.24 31.05
44.52 43.97 42.48 41.74 41.24 40.32 40.58 39.58 39.54 39.20 39.09 39.48 39.12 38.66 35.01 33.85 32.23 32.04 31.53 31.19 31.55 30.27
43.50 42.49 41.16 41.03 40.83 40.69 40.43 39.71 39.06 38.34 38.27 38.06 39.42 35.25 35.33 32.57 29.31 30.31 30.07 29.13 28.83 28.20
41.19 40.66 40.29 40.39 40.70 40.24 39.85 38.98 38.21 38.08 37.92 36.86 35.52 34.61 33.70 31.95 28.19 28.27 28.20 28.58 26.69 27.63
40.09 40.34 40.52 40.29 39.96 38.34 38.20 37.57 37.05 37.21 37.30 35.48 34.29 34.13 33.15 30.77 26.71 27.40 28.46 27.24 26.58 25.49
39.98 39.57 39.91 38.49 37.23 37.65 37.12 36.38 35.91 36.64 36.10 33.91 32.14 33.39 31.62 28.68 27.07 27.99 27.28 28.18 27.81 27.03
39.73 39.46 38.13 37.39 37.24 36.89 36.01 36.05 36.24 35.61 34.74 33.32 29.73 32.51 31.04 28.90 25.24 25.87 25.86 26.13 26.03 28.45
40.07 39.13 38.11 37.31 36.58 35.19 34.78 34.71 32.83 31.57 30.77 30.05 29.12 29.41 31.49 30.92 26.15 25.13 25.56 25.00 24.29 24.65

GFSNIL_sfc_wetblb_018.txt.gz
Wetbulb
41.73 41.10 40.55 40.49 39.56 39.34 38.89 38.77 39.67 40.49 40.94 40.20 41.74 41.45 40.32 39.11 38.00 38.43 37.52 36.30 36.10 34.35
41.75 42.25 41.51 40.55 40.03 39.23 39.12 40.44 40.99 39.65 40.08 38.87 39.04 39.85 39.76 38.42 37.97 37.71 36.57 35.01 34.52 33.63
42.68 42.63 41.54 40.36 39.32 40.74 41.00 40.57 39.97 40.27 38.91 38.42 38.01 37.76 38.12 37.00 36.72 35.39 35.07 35.17 34.10 33.40
41.25 41.37 40.68 40.56 41.11 40.47 39.43 40.57 40.43 40.08 38.66 39.55 37.98 38.42 37.29 36.60 35.74 35.49 34.97 34.71 34.02 33.78
43.47 43.18 41.41 40.35 39.90 40.62 40.16 39.92 40.01 38.46 39.54 39.33 38.39 38.27 36.89 36.21 36.26 35.48 34.46 34.44 34.33 34.30
43.16 42.29 42.24 41.40 41.03 39.57 40.13 39.30 39.06 38.76 38.24 38.32 38.54 38.45 37.78 36.60 35.93 35.14 34.85 35.21 33.74 33.12
43.21 43.58 43.00 40.66 38.90 38.52 38.38 37.31 37.38 38.51 38.58 39.49 38.88 38.19 37.60 35.48 33.52 33.22 33.12 32.98 31.89 30.79
44.56 44.46 42.30 39.09 38.37 38.30 38.01 38.19 38.88 38.24 38.97 39.28 38.65 38.33 36.06 34.67 32.64 32.04 30.88 30.59 30.53 29.33
44.05 41.71 40.30 38.37 38.03 38.41 39.08 39.84 38.50 38.70 37.97 37.39 38.26 37.18 36.58 33.80 30.22 30.28 29.44 28.63 28.30 27.40
41.42 39.87 39.76 39.42 38.10 38.80 39.15 39.33 39.01 38.04 37.55 36.34 35.93 36.36 36.32 34.23 28.87 29.71 28.47 27.84 26.80 27.14
40.35 39.37 39.63 38.80 38.58 38.60 38.55 36.76 35.91 35.72 36.16 35.57 35.51 35.19 34.84 32.27 28.77 28.08 28.75 27.29 26.21 25.69
39.77 38.61 38.40 37.76 37.93 37.59 37.09 36.06 34.57 35.45 35.82 34.85 32.84 34.53 33.29 29.75 26.39 28.01 27.43 27.96 27.54 26.60
38.42 38.58 38.13 37.84 37.63 37.22 35.17 35.17 35.28 34.48 34.27 34.47 31.82 34.01 32.79 29.95 26.47 26.18 26.12 26.37 26.36 28.88
40.09 39.52 38.85 38.27 37.14 35.59 33.99 33.00 31.87 31.48 31.77 31.02 29.92 30.17 32.84 32.11 26.51 26.07 25.85 26.05 24.59 25.08

GFSNIL_sfc_wetblb_021.txt.gz
Wetbulb
45.60 44.28 43.26 41.28 40.64 38.54 38.36 37.76 38.63 39.74 41.56 43.25 43.20 40.10 39.95 39.82 37.27 38.49 36.56 35.72 35.31 34.33
44.36 43.96 42.11 41.07 40.84 38.13 38.04 39.48 38.93 41.05 40.82 40.63 40.53 39.61 39.33 39.37 37.21 37.43 36.42 34.74 34.21 33.54
45.46 43.40 42.12 41.00 39.85 39.75 39.79 41.36 40.68 40.26 40.22 39.70 39.07 38.98 39.11 37.04 36.37 35.35 34.42 34.72 33.20 32.71
42.86 41.75 41.31 40.11 40.60 40.97 41.02 40.67 40.66 39.82 39.39 39.28 39.01 37.89 36.24 35.92 34.99 34.88 33.63 34.25 33.66 33.55
43.55 41.78 40.16 40.98 42.20 41.80 40.16 40.56 40.46 39.88 39.54 39.82 39.02 38.52 37.19 35.84 35.33 34.30 33.34 33.60 32.96 32.97
41.18 40.89 41.10 42.84 41.53 40.42 40.32 38.82 38.82 38.72 39.06 38.99 38.75 37.92 36.87 35.80 35.20 33.88 33.63 34.08 33.58 32.74
41.94 41.85 42.11 41.20 40.64 40.18 39.75 38.73 38.27 39.08 39.10 39.11 37.60 37.67 37.18 35.73 34.53 33.44 33.16 33.31 32.57 31.45
43.58 42.50 42.52 41.35 40.27 39.44 39.02 38.75 38.52 38.47 38.84 37.84 37.53 37.49 35.62 34.46 33.11 32.08 31.23 30.68 30.27 29.56
42.88 43.50 41.31 39.83 39.26 39.11 38.97 38.76 38.71 39.19 38.14 36.85 37.90 37.34 37.46 35.02 32.26 31.50 29.88 28.53 29.66 29.50
42.98 40.49 39.33 39.31 38.94 39.02 38.96 39.61 39.71 37.96 37.05 36.71 36.73 36.40 37.37 36.25 30.75 29.42 28.40 28.98 28.95 27.20
40.06 38.53 38.65 38.76 38.56 38.44 38.62 37.76 36.83 36.33 35.84 34.77 34.63 35.67 36.30 34.71 28.93 28.41 28.19 27.84 27.19 25.62
39.40 38.55 38.71 38.12 38.43 38.71 38.09 37.56 35.83 34.81 34.53 34.20 32.91 34.91 35.25 31.51 27.15 26.65 26.69 28.40 26.99 26.32
39.50 39.57 39.26 38.91 38.49 38.44 37.22 35.33 34.71 33.51 32.95 33.28 31.80 33.65 34.85 30.74 25.87 26.23 26.73 26.37 26.89 31.22
40.65 40.16 39.56 38.96 38.46 37.18 34.76 32.85 30.49 29.94 30.39 30.85 30.42 30.27 34.55 33.27 27.01 27.21 26.01 26.35 25.52 25.94

GFSNIL_sfc_wetblb_027.txt.gz
Wetbulb
53.90 53.13 53.46 51.63 48.85 45.71 46.58 46.51 46.82 47.45 47.66 47.11 46.44 47.73 47.59 45.66 46.53 46.20 45.32 44.61 44.09 43.96
55.87 54.43 53.33 51.32 49.70 48.85 46.62 46.03 45.68 46.54 46.35 45.24 47.11 45.85 46.92 46.53 45.95 45.64 45.55 45.19 44.68 43.83
55.73 54.08 53.49 50.56 48.09 47.55 46.29 45.40 45.39 45.62 43.60 45.31 45.75 46.01 45.15 44.68 45.78 44.83 45.17 44.55 43.67 43.21
54.37 53.71 52.14 50.11 48.86 46.06 43.77 43.67 43.74 42.05 44.52 43.64 42.89 44.21 44.22 44.17 43.80 43.60 43.60 42.63 41.99 41.65
53.88 52.35 50.37 49.31 46.72 44.68 43.06 43.82 42.65 43.29 42.56 43.29 42.45 43.23 42.99 42.51 41.92 41.65 41.25 41.57 41.21 41.00
51.32 50.32 50.13 48.89 46.51 44.91 43.59 42.49 43.18 43.64 43.22 42.90 42.85 42.92 42.19 41.27 41.40 41.03 41.33 41.58 41.06 40.93
50.26 49.42 48.91 48.15 45.68 43.42 43.66 41.94 43.00 43.26 43.31 42.56 42.13 41.54 41.00 41.50 41.63 41.06 41.13 41.05 40.63 40.55
49.66 48.59 47.32 44.47 42.41 41.95 41.36 41.23 41.19 40.55 41.71 41.87 41.17 42.15 41.44 41.07 41.13 40.92 40.68 40.59 40.00 40.06
47.64 45.55 43.82 42.48 41.75 40.85 40.93 39.95 41.57 40.27 41.68 43.29 42.55 38.64 37.88 38.17 40.57 40.01 39.52 39.31 40.07 39.85
45.18 43.71 41.80 41.26 40.38 39.14 39.72 40.49 41.60 42.48 42.35 41.78 42.59 37.51 37.23 36.57 39.28 39.29 39.58 39.56 39.39 38.46
43.59 42.20 41.22 40.88 40.28 41.26 41.84 41.75 41.50 40.96 41.95 41.76 38.93 36.32 36.30 35.51 38.62 39.01 39.12 39.11 38.90 38.49
42.25 41.69 41.89 41.78 41.24 41.51 41.28 40.95 41.57 42.12 40.25 37.69 37.87 37.43 35.44 35.10 37.63 37.41 37.52 37.89 37.45 37.25
42.56 42.40 41.68 42.29 41.74 42.42 42.68 41.38 40.00 37.63 37.58 37.36 39.76 36.14 34.60 34.97 37.10 36.01 36.02 36.79 35.54 32.74
43.28 42.99 43.24 41.95 40.46 39.36 38.19 37.32 36.75 36.89 37.99 37.58 36.97 37.45 34.77 34.45 35.54 35.69 35.18 34.83 34.90 34.55

GFSNIL_sfc_wetblb_033.txt.gz
Wetbulb
64.31 63.92 64.76 63.59 62.36 60.02 55.86 52.14 53.66 51.86 52.97 51.01 48.88 49.84 50.33 49.29 48.13 48.71 49.70 50.27 49.53 48.99
64.95 64.30 64.75 64.06 62.88 58.52 54.46 54.31 53.58 53.71 51.96 49.43 48.95 48.31 47.70 47.46 48.53 47.45 50.56 49.86 49.04 48.40
65.24 64.66 64.11 62.97 59.30 56.26 55.29 54.42 53.45 52.39 50.32 49.57 49.17 47.31 47.59 47.57 47.51 48.28 47.82 48.78 48.02 47.82
64.46 63.48 63.04 61.00 58.36 56.83 55.33 54.30 53.44 51.97 51.04 48.69 46.95 45.61 45.89 47.67 47.73 47.20 47.45 47.18 46.18 46.78
62.74 60.23 59.20 58.49 57.86 57.18 56.46 56.27 53.90 52.57 49.12 46.79 45.35 46.01 46.91 45.71 45.58 46.33 44.84 45.11 45.78 45.84
60.85 59.16 58.19 57.67 57.73 56.70 55.12 52.71 49.95 47.40 45.79 45.33 45.30 45.60 46.06 46.16 45.66 45.29 44.51 44.49 46.02 45.72
61.06 58.96 58.18 57.54 55.75 53.59 49.66 46.75 45.71 45.96 44.83 44.16 44.83 44.79 44.15 44.18 44.69 44.28 44.31 45.33 46.31 45.17
59.32 59.11 57.56 56.43 55.12 53.50 51.18 49.22 47.15 44.38 43.51 43.29 43.96 43.90 44.13 44.49 44.22 43.27 43.61 45.13 45.34 45.54
56.64 56.02 55.23 54.02 52.15 50.93 49.85 47.89 45.55 43.77 44.63 43.07 43.24 39.96 40.17 42.62 43.86 42.69 42.65 42.64 43.71 44.84
53.48 51.97 51.12 50.16 48.64 47.33 46.26 45.39 43.36 42.87 42.64 42.73 44.09 39.34 39.18 37.88 41.05 39.62 39.95 40.46 41.65 42.72
51.06 49.64 49.20 48.08 46.38 44.63 44.25 43.76 43.90 43.87 44.29 44.82 44.32 39.31 38.40 36.84 39.02 38.98 40.28 42.58 43.02 42.33
49.82 48.52 47.86 46.80 46.62 46.64 46.14 45.61 45.05 45.09 44.15 43.14 43.21 38.36 37.29 37.47 39.86 41.23 40.99 41.41 41.56 41.31
48.90 47.95 46.75 45.22 44.76 44.68 44.85 44.38 44.65 42.95 42.19 39.35 41.67 39.51 37.62 37.89 39.37 38.04 38.77 39.41 40.11 37.51
46.98 45.42 44.99 44.88 44.27 43.27 43.49 43.10 42.74 41.99 42.81 42.06 40.93 40.56 35.81 34.45 36.81 34.02 31.79 33.80 35.72 37.98

GFSNIL_sfc_wetblb_036.txt.gz
Wetbulb
62.77 62.52 61.99 61.58 60.93 60.27 59.09 56.18 54.06 53.22 52.44 52.11 51.03 49.52 49.18 48.82 47.80 47.86 47.72 47.66 47.50 47.78
63.71 62.00 61.28 61.77 61.58 59.72 57.06 54.00 53.03 52.87 51.95 50.79 49.42 48.64 47.98 47.42 47.07 47.61 47.61 47.21 47.62 45.79
62.00 62.07 61.93 61.85 61.36 58.44 55.12 53.94 53.63 52.80 51.85 49.55 47.91 48.03 47.93 46.89 47.50 47.21 46.50 46.76 45.48 45.65
61.02 59.65 59.51 62.14 60.29 56.58 55.41 54.76 53.45 52.08 49.84 48.37 48.14 47.70 46.46 46.27 46.27 46.29 45.88 44.98 44.96 45.01
62.68 62.74 61.23 59.53 58.26 57.18 55.80 54.62 52.49 51.35 49.73 48.54 47.45 46.79 45.51 45.67 45.98 45.03 43.97 44.79 44.20 43.91
60.87 59.29 58.74 57.54 56.61 55.68 54.62 53.47 52.25 50.23 48.54 46.56 45.55 45.15 45.20 45.66 45.05 44.12 43.95 43.88 43.74 43.38
59.53 58.67 57.64 56.75 54.61 50.18 48.21 46.16 45.83 46.16 46.02 45.46 45.31 45.10 45.05 45.48 44.46 43.71 43.98 43.98 43.37 43.25
58.51 57.90 56.99 55.40 53.39 51.07 48.34 46.52 45.62 44.92 44.62 44.45 44.12 44.84 43.63 43.73 43.15 42.56 41.90 42.24 43.66 43.75
57.61 56.77 55.32 53.32 52.22 50.73 48.70 47.95 45.14 43.78 42.81 42.36 43.28 39.01 41.88 42.49 42.55 42.00 41.78 40.56 42.06 42.25
53.50 51.58 50.46 49.46 47.98 46.55 45.33 44.50 42.59 42.57 42.14 42.48 42.07 40.24 39.36 38.54 40.04 39.40 38.32 39.22 39.77 40.61
50.71 49.26 48.17 46.52 44.28 43.06 42.49 41.67 41.44 41.55 42.21 42.03 42.49 39.09 38.76 36.83 37.83 38.34 39.10 39.40 39.19 39.40
48.76 47.25 46.00 44.56 43.85 43.90 43.08 43.16 43.50 43.06 42.80 42.25 40.54 38.39 37.53 37.30 38.15 39.12 38.21 38.30 37.46 36.74
48.27 46.95 45.38 44.62 43.72 43.95 44.02 43.01 42.90 42.06 41.13 39.14 41.01 38.02 36.35 36.02 33.79 31.81 30.00 31.71 33.08 33.61
45.85 44.63 44.44 43.98 43.80 42.45 41.65 41.32 39.16 39.03 39.74 40.48 35.98 33.23 32.13 31.77 28.59 26.80 26.79 27.31 27.70 28.24

GFSNIL_sfc_wetblb_039.txt.gz
Wetbulb
59.59 58.45 57.97 57.48 58.09 58.27 59.25 59.37 56.26 53.24 52.89 51.69 52.52 51.13 49.83 48.61 47.78 48.10 48.10 47.58 48.11 48.58
60.10 59.56 58.85 59.24 59.84 60.11 60.01 56.06 54.27 53.09 51.30 50.14 48.88 48.55 47.24 47.03 47.72 47.67 47.58 47.30 47.40 47.23
60.55 60.18 59.93 59.35 57.18 57.67 55.48 55.35 53.50 53.54 52.55 51.39 48.61 47.10 47.82 47.38 47.63 47.24 47.08 47.10 46.54 45.96
60.32 60.75 60.83 59.98 59.08 57.56 54.63 54.30 53.48 54.01 52.00 48.32 47.29 47.93 47.20 46.71 47.44 46.12 46.01 45.85 45.14 44.55
59.57 59.63 58.03 58.14 56.96 55.40 53.45 54.22 54.20 52.83 50.72 48.97 48.12 47.27 46.41 45.82 46.02 45.22 44.87 44.68 44.26 43.80
59.79 60.69 58.24 57.20 56.72 54.93 54.19 53.80 52.28 50.39 49.03 47.66 47.15 46.14 46.02 45.74 45.47 45.36 44.67 44.11 43.57 43.22
56.88 56.56 55.88 55.54 54.35 52.49 51.76 50.73 50.56 49.21 47.89 47.06 46.00 45.90 45.20 45.19 44.61 43.75 44.00 43.91 43.05 42.67
56.08 55.84 54.44 52.80 50.62 48.57 48.36 47.25 46.30 45.59 45.43 45.49 44.98 44.88 44.69 44.82 44.03 42.96 42.52 42.53 42.89 43.11
56.08 55.17 54.30 52.15 49.73 48.36 46.35 45.44 44.83 44.13 44.13 43.67 44.17 40.17 40.66 42.73 42.58 41.82 41.04 40.64 40.39 40.49
50.52 49.00 47.91 48.69 48.85 47.13 44.93 41.65 40.45 40.16 39.70 39.34 39.23 39.25 39.59 39.33 40.01 38.53 36.86 36.04 37.02 40.05
47.77 46.15 44.31 42.79 41.05 40.08 39.80 39.19 38.99 39.30 40.32 39.60 39.33 38.36 38.17 36.93 36.36 35.91 38.05 39.20 39.04 36.26
45.59 43.18 42.15 40.84 39.53 39.57 39.38 38.81 38.84 39.56 39.25 39.12 38.79 38.51 36.80 36.59 36.85 38.81 34.72 33.86 32.27 31.64
44.56 43.60 42.15 41.17 40.46 40.02 39.91 40.15 41.59 40.49 40.67 38.40 38.84 36.37 36.49 34.75 29.38 27.40 26.31 27.61 29.41 30.71
43.56 42.53 42.07 41.34 40.36 39.80 38.76 38.05 36.02 36.43 36.69 33.67 31.02 30.46 31.24 29.84 25.70 25.30 25.82 25.32 24.84 25.22

GFSNIL_sfc_wetblb_042.txt.gz
Wetbulb
57.42 57.92 57.84 57.13 55.31 58.01 58.52 59.01 59.30 59.38 58.34 57.17 53.11 52.34 52.79 50.62 50.45 48.74 48.79 48.60 48.76 49.01
57.79 58.08 58.05 57.04 56.57 57.50 59.41 59.42 58.57 57.35 55.78 54.12 53.17 52.48 51.26 50.28 48.64 48.83 48.54 48.59 48.59 47.95
58.31 58.69 59.08 57.66 57.40 57.70 55.35 55.90 55.62 54.39 53.52 51.71 51.35 50.04 50.30 49.42 48.21 48.06 48.31 47.94 47.04 46.86
58.67 59.04 58.53 57.93 57.66 56.88 56.84 56.26 54.57 53.21 51.69 50.81 50.54 49.32 48.53 47.83 47.76 47.51 46.96 46.80 46.48 45.52
58.25 57.69 58.28 58.42 57.64 57.32 57.38 57.00 55.72 53.45 53.27 51.05 49.29 48.85 47.42 46.77 47.35 46.43 45.37 45.10 44.67 44.13
59.14 59.07 59.58 59.58 58.26 58.72 58.08 57.30 54.21 53.83 52.08 50.09 49.26 47.66 46.71 46.71 46.11 45.53 45.28 44.78 44.09 43.66
58.38 59.29 59.84 59.78 57.59 56.84 54.86 53.56 52.80 51.29 50.35 48.67 47.39 46.80 46.32 45.69 45.14 44.63 44.59 44.38 43.81 43.19
57.98 59.18 57.83 55.37 54.53 53.20 52.64 51.58 50.53 49.85 48.47 46.70 46.09 45.56 45.21 44.78 44.10 43.70 43.30 43.35 42.70 42.55
56.58 55.90 54.24 52.20 50.11 48.86 48.56 47.71 46.29 45.91 45.11 44.53 44.91 40.44 41.42 43.20 43.29 42.91 41.95 40.91 40.80 40.74
54.50 53.02 51.41 50.25 48.44 47.35 44.83 44.03 43.36 43.52 43.83 42.81 43.26 39.69 40.34 39.98 41.77 40.39 39.33 37.99 38.08 39.32
49.95 49.55 48.88 46.52 44.16 41.44 41.64 41.16 38.92 38.61 39.36 39.38 39.43 38.41 38.14 36.83 36.81 35.46 37.06 37.87 35.62 33.76
46.39 45.04 43.62 41.29 40.22 39.12 39.03 38.48 38.16 39.02 38.16 37.85 37.16 37.45 36.61 35.62 34.79 33.58 31.54 32.19 32.31 30.86
42.87 41.58 39.89 38.97 38.27 38.07 37.91 38.18 38.96 37.76 37.31 36.57 35.25 36.65 36.84 36.36 32.65 28.78 27.75 27.27 27.04 28.73
41.94 40.67 39.92 39.40 39.08 38.26 37.61 36.80 35.50 33.65 32.93 31.95 32.17 31.57 31.74 30.35 26.93 25.69 25.38 24.51 24.44 24.82

GFSNIL_sfc_wetblb_045.txt.gz
Wetbulb
53.22 52.73 52.97 53.73 54.89 54.67 54.72 55.52 55.85 56.95 57.81 58.20 57.05 54.73 54.31 53.85 53.06 51.50 50.29 49.09 49.60 49.58
53.82 53.53 53.87 54.64 55.57 55.51 55.79 57.38 56.49 56.91 57.76 58.31 57.11 55.97 54.29 53.73 51.66 50.51 49.89 49.61 49.96 49.53
54.90 55.08 55.34 55.95 55.79 55.12 55.53 55.93 55.77 55.27 55.69 55.31 54.52 54.41 53.83 52.30 51.05 49.88 49.13 49.19 49.26 48.58
55.77 55.99 56.68 57.02 57.58 56.11 55.45 55.85 56.37 56.07 54.94 53.48 53.60 50.91 50.75 49.34 48.38 48.76 48.01 48.28 48.47 47.29
57.27 57.66 57.56 57.77 57.69 57.27 57.05 57.38 56.25 55.17 53.70 52.08 50.90 50.23 50.05 48.22 48.17 47.89 47.24 47.04 46.73 45.24
57.39 57.65 57.77 58.08 58.29 57.78 58.46 58.01 57.77 57.63 54.74 52.91 51.94 49.82 48.95 48.46 47.68 47.31 46.93 46.04 45.37 44.28
57.54 57.93 58.27 58.41 58.41 58.32 58.08 57.80 57.31 54.64 53.64 52.22 50.23 49.71 48.20 47.36 46.57 45.96 45.69 45.00 44.49 43.76
58.07 58.60 58.44 58.21 58.44 58.16 57.79 57.33 54.43 52.67 51.08 49.63 48.13 47.74 46.84 46.07 45.06 44.32 43.88 43.83 43.68 42.82
55.95 56.45 56.73 56.09 54.36 53.06 51.67 51.09 51.57 49.55 47.60 46.80 47.18 43.68 41.41 43.52 44.05 43.74 43.01 41.90 41.21 41.18
55.43 55.31 53.36 52.22 51.16 49.78 47.94 46.64 46.33 45.76 46.14 45.14 43.71 39.97 40.60 40.25 42.93 42.11 40.82 40.13 38.94 38.66
53.50 50.96 49.83 48.87 47.61 45.11 45.16 44.20 43.66 43.23 43.62 43.36 42.64 39.09 38.81 38.03 39.17 38.49 38.25 37.74 36.36 33.31
50.68 49.02 47.45 45.24 43.40 41.80 41.48 41.09 40.76 41.27 40.70 40.41 39.30 37.60 36.82 37.06 36.64 33.54 31.66 31.77 31.21 30.54
48.21 46.63 44.00 40.97 40.48 38.08 38.33 37.90 38.24 35.97 35.38 36.42 36.06 36.57 36.71 34.96 31.28 28.98 27.53 27.80 27.66 28.94
44.37 42.66 40.12 38.31 38.21 37.17 36.77 35.66 34.64 32.38 32.17 32.64 32.74 33.08 34.08 33.29 30.65 28.64 26.92 25.78 24.99 24.76

GFSNIL_sfc_wetblb_048.txt.gz
Wetbulb
51.55 51.25 51.02 50.97 51.79 51.57 52.45 52.32 53.03 53.94 54.59 54.60 54.66 54.31 53.77 53.24 53.93 53.01 52.11 51.75 50.92 50.96
52.05 51.69 51.05 51.12 50.79 52.12 52.87 53.95 54.31 54.78 54.30 54.29 55.21 54.77 54.12 54.34 53.53 53.31 53.20 51.86 51.28 50.42
52.09 52.29 52.33 51.74 52.00 53.22 53.79 53.97 54.62 54.96 55.41 55.99 56.45 55.99 55.83 55.87 56.11 54.97 53.53 51.68 50.13 49.70
52.86 52.55 52.83 53.20 54.48 55.12 55.27 55.25 54.94 55.75 56.05 56.29 56.21 56.13 55.61 54.78 51.93 51.61 52.00 50.88 50.03 48.99
53.39 54.60 54.22 54.18 54.97 55.50 54.90 55.86 56.08 56.01 55.83 56.49 56.19 53.42 52.55 51.31 50.57 50.83 49.71 49.02 48.71 47.15
53.24 54.21 54.44 54.75 55.50 55.60 55.27 56.24 56.37 56.57 56.25 55.67 52.30 50.91 50.83 50.14 50.01 48.96 48.44 47.53 47.10 45.91
53.51 54.20 54.67 55.39 55.49 55.73 56.46 56.20 56.79 57.16 56.92 56.47 52.07 50.61 49.86 49.76 48.50 47.56 47.02 46.61 46.56 45.56
54.73 55.45 55.48 55.69 56.09 56.85 56.88 56.84 57.48 57.16 55.43 52.56 51.46 49.66 48.79 48.09 47.04 46.17 45.00 45.06 44.68 44.24
55.34 55.70 55.91 56.07 56.17 56.84 57.02 57.29 57.05 55.15 51.41 50.00 49.48 43.78 43.89 45.87 46.05 45.07 43.98 42.17 41.56 41.45
55.57 55.59 55.95 57.03 57.09 56.47 55.41 52.61 51.53 49.55 48.98 47.89 47.73 41.42 41.86 42.70 44.26 43.01 41.98 40.85 39.89 38.47
54.60 55.55 55.53 53.44 52.55 49.07 48.79 49.37 46.97 46.28 46.10 44.83 43.24 40.23 39.56 38.62 40.87 39.57 39.14 39.11 37.26 34.33
53.99 50.71 50.02 48.63 47.22 46.15 46.19 45.34 44.49 43.72 43.17 41.69 39.62 37.81 37.18 37.91 35.96 33.25 31.61 31.90 32.24 31.34
50.40 49.01 47.26 44.17 42.76 41.59 41.49 39.38 38.79 36.90 37.65 37.55 36.75 36.63 36.34 35.05 32.79 29.87 28.13 28.33 28.83 29.59
46.76 44.55 42.11 40.45 40.13 39.07 36.92 34.73 32.92 31.58 31.56 32.31 33.95 34.08 34.82 34.24 32.07 29.49 27.64 26.24 25.31 26.05

GFSNIL_sfc_wetblb_051.txt.gz
Wetbulb
56.91 56.78 56.62 57.18 56.99 57.22 56.66 57.30 57.69 58.13 58.88 59.34 59.44 60.06 60.50 60.15 60.04 59.51 58.74 57.83 56.55 53.53
56.62 56.37 56.01 56.87 56.54 57.02 57.44 57.11 57.86 58.01 58.25 58.91 59.34 59.79 59.79 59.29 59.13 58.69 58.37 56.95 55.77 53.27
56.52 56.67 56.83 56.79 56.00 56.16 56.92 57.02 57.59 58.41 58.90 58.95 59.38 59.23 59.17 59.19 59.15 58.24 56.38 56.32 54.38 53.59
56.36 56.47 56.49 55.58 55.61 55.87 56.08 55.76 56.48 57.60 58.29 58.53 58.78 59.30 59.11 59.33 58.84 55.38 55.86 55.87 54.08 53.74
56.35 56.11 55.72 55.55 56.26 56.81 56.41 55.51 55.72 56.71 57.63 57.95 58.53 59.15 58.13 57.64 55.76 54.58 53.94 53.70 51.97 52.04
55.61 55.60 55.01 55.62 56.24 56.98 57.07 57.17 57.88 57.38 57.27 57.57 56.97 57.89 57.88 57.35 53.90 52.81 54.13 54.22 52.29 50.54
55.31 55.48 56.09 56.54 56.77 57.17 57.37 57.44 57.98 58.27 58.17 58.31 57.54 57.52 55.86 55.31 56.12 54.97 53.66 52.93 49.79 48.58
55.43 55.95 56.35 56.94 57.45 57.51 57.49 57.76 58.34 58.40 58.55 58.89 58.23 55.67 54.75 53.71 52.41 51.78 49.44 48.44 47.40 47.13
55.95 55.85 56.31 56.57 56.92 57.64 57.74 57.72 58.19 58.03 57.89 57.59 56.36 48.16 45.62 49.62 51.30 50.25 46.75 44.55 43.11 42.97
56.77 56.45 56.90 57.00 56.80 57.21 57.81 58.36 58.28 57.96 57.05 55.42 54.16 43.63 43.45 42.36 47.64 46.39 45.16 42.05 40.44 38.81
57.08 56.71 57.19 57.17 57.19 57.79 57.82 56.87 55.20 53.03 51.02 49.01 46.41 41.09 40.33 40.55 43.65 42.38 41.81 41.40 39.45 36.59
57.38 57.15 57.05 56.46 52.60 49.35 48.29 46.37 45.28 45.27 45.05 44.08 40.88 38.79 38.01 38.84 37.45 35.22 34.64 34.93 34.64 33.40
56.58 53.56 51.76 48.36 45.90 43.39 42.50 39.95 38.87 37.45 38.61 37.69 37.82 36.97 36.85 36.63 34.13 31.56 30.40 30.63 30.50 30.60
51.62 48.50 44.79 42.30 41.56 39.43 36.87 35.09 33.42 32.19 32.54 34.03 35.39 35.62 35.87 35.55 33.48 30.48 28.87 27.45 26.59 27.88

GFSNIL_sfc_wetblb_054.txt.gz
Wetbulb
60.34 60.86 59.73 60.12 59.47 59.11 58.76 59.44 59.29 60.28 60.78 60.92 61.21 61.40 61.90 61.62 61.99 62.44 62.45 62.28 62.06 61.45
61.02 61.18 61.04 61.18 61.48 60.87 61.05 60.74 61.64 60.88 60.34 60.24 60.43 60.88 61.16 61.26 60.70 61.75 62.62 62.06 62.27 61.88
61.46 61.67 61.84 61.97 61.37 61.42 61.76 61.77 61.29 60.90 60.70 61.09 61.21 61.34 60.87 61.36 61.34 61.14 62.10 61.63 61.62 60.80
61.35 61.61 61.68 61.92 61.72 61.53 61.72 61.58 61.01 61.29 61.11 60.72 61.19 61.29 61.22 61.41 61.43 61.02 61.34 61.32 60.12 59.15
60.79 60.82 60.79 61.23 61.46 62.17 61.63 61.36 61.41 61.36 60.99 60.41 61.24 61.39 60.98 60.20 60.06 60.02 59.81 60.00 58.73 56.69
60.24 60.69 60.95 60.81 60.46 60.47 60.11 60.24 60.11 59.77 59.50 58.76 59.92 59.48 59.65 58.15 60.20 60.22 59.59 59.81 56.94 55.05
59.97 60.56 60.63 60.46 60.32 60.53 60.07 59.32 59.47 60.00 59.53 59.77 59.26 59.18 59.24 58.79 59.42 59.52 59.42 59.42 57.84 57.92
60.74 60.08 59.91 59.62 59.64 59.73 59.81 59.54 59.43 59.70 59.65 59.89 59.77 59.63 59.83 59.88 59.72 59.08 57.51 56.35 56.32 57.04
59.87 59.74 59.59 59.44 59.65 59.32 59.39 59.33 59.58 59.28 59.37 59.69 59.55 50.06 47.42 53.69 57.91 56.74 55.23 50.73 49.49 48.96
59.66 58.98 59.20 59.45 59.05 58.90 59.34 59.94 59.37 59.32 59.41 59.30 60.39 44.61 45.16 45.34 56.88 53.64 51.53 47.55 44.15 42.90
59.17 58.85 59.21 59.00 58.54 58.83 59.36 59.46 59.72 58.77 58.97 58.41 58.30 44.43 44.25 41.89 48.92 45.87 44.91 43.35 41.93 38.97
59.94 58.87 59.25 58.80 59.21 59.69 58.79 58.21 54.87 53.59 52.49 50.91 46.12 41.33 39.69 42.00 41.11 38.86 37.26 37.97 37.39 35.86
60.22 59.76 59.51 59.60 59.02 52.89 49.47 42.19 40.29 38.36 39.36 38.65 38.85 37.96 38.67 38.51 35.52 33.24 31.46 31.08 32.19 33.22
59.93 59.06 56.22 51.38 46.30 41.72 38.28 36.27 34.45 33.24 33.93 35.04 36.28 36.20 36.24 36.08 33.85 31.68 30.29 29.27 29.04 30.13

GFSNIL_sfc_wetblb_057.txt.gz
Wetbulb
59.85 58.97 59.65 58.79 59.28 58.77 57.36 58.89 60.77 62.64 63.27 63.61 63.95 63.92 63.24 63.12 62.81 61.82 62.15 62.97 62.13 62.20
58.66 58.75 59.67 60.68 61.16 60.58 60.27 60.44 61.26 62.23 62.84 63.18 63.29 63.33 63.19 62.79 62.56 62.58 63.03 62.91 62.95 61.90
59.34 59.41 61.52 61.23 61.78 61.75 61.40 61.46 61.41 61.31 61.64 61.61 62.33 62.40 62.50 61.85 62.24 61.59 61.92 61.74 61.80 61.85
61.43 61.19 61.38 61.76 62.69 62.77 63.13 62.13 61.57 61.59 61.50 61.18 61.33 61.68 61.44 61.04 61.10 60.86 61.05 61.70 61.50 61.08
63.46 63.23 62.13 62.34 63.60 63.83 63.23 63.38 62.74 61.87 61.78 61.48 61.23 61.61 61.42 60.73 60.60 60.55 60.14 60.40 60.46 60.12
63.32 63.07 63.03 63.25 63.64 64.16 63.52 63.33 62.70 62.37 61.72 61.15 61.27 61.22 61.49 61.10 60.89 60.94 60.73 60.44 60.00 59.97
62.50 62.81 63.09 63.70 63.65 63.49 63.60 62.92 62.74 62.63 61.97 61.92 61.87 61.46 61.28 61.02 60.97 60.94 59.98 60.74 58.98 58.14
62.58 63.00 62.78 62.94 63.12 63.22 62.97 62.53 62.47 62.11 62.16 62.16 61.59 60.78 60.73 60.36 59.95 58.66 57.99 58.98 60.51 60.30
63.01 62.01 62.43 62.46 62.67 62.64 62.39 62.42 62.22 61.39 61.35 61.14 60.78 50.99 46.58 54.04 60.40 58.57 56.76 56.72 58.72 58.94
63.19 62.33 62.37 62.48 61.95 61.74 61.64 62.06 61.31 61.20 61.13 60.86 61.47 46.62 44.62 44.57 58.93 59.75 59.47 58.77 58.10 50.74
62.60 62.23 62.26 61.96 61.54 61.41 61.47 61.07 61.24 61.03 61.25 60.75 60.14 44.63 44.04 43.82 57.02 57.59 54.45 53.39 50.13 44.86
62.29 61.67 61.77 61.35 61.15 61.47 61.29 61.08 60.68 60.73 60.32 57.90 55.42 42.37 42.55 43.75 43.48 40.19 38.78 39.70 40.37 38.72
61.98 61.54 60.96 61.20 61.13 61.24 60.73 57.28 47.06 41.41 40.96 38.41 40.16 41.10 41.46 42.18 38.12 34.51 32.82 33.30 34.16 33.99
62.16 61.54 61.65 61.69 61.20 52.56 45.90 40.15 36.74 34.55 34.64 35.52 36.23 36.75 37.72 37.31 34.52 32.19 31.09 30.65 30.53 31.50

GFSNIL_sfc_wetblb_060.txt.gz
Wetbulb
58.19 57.92 56.90 56.15 55.85 55.15 55.07 57.39 58.67 58.66 58.53 59.25 60.10 60.37 60.59 60.03 59.84 59.21 58.79 58.69 58.09 58.07
58.68 57.72 57.16 57.26 57.04 56.37 56.44 57.54 58.85 59.79 59.39 59.40 59.56 60.20 60.23 59.85 59.05 58.65 58.99 58.92 58.89 58.38
58.29 58.71 58.43 58.34 57.73 57.43 57.35 56.97 57.57 58.73 59.73 59.67 59.63 60.20 60.46 59.64 59.20 58.79 58.87 58.85 58.26 58.53
57.74 58.47 59.03 58.34 58.64 58.19 58.26 58.14 57.55 57.85 58.13 58.73 59.57 59.87 59.32 59.09 58.66 58.39 58.15 57.98 57.73 58.08
58.37 58.30 58.40 58.28 58.95 59.13 58.74 59.19 58.53 57.97 58.41 58.39 58.63 58.91 58.62 58.26 58.50 57.73 56.94 57.26 57.00 56.99
58.85 58.59 58.52 58.43 59.18 59.51 59.29 59.92 59.69 58.77 57.94 58.01 58.18 58.07 58.24 58.23 57.75 57.36 57.17 56.96 56.58 56.59
59.76 59.55 59.32 59.98 59.94 60.09 60.68 59.81 59.97 59.93 59.31 58.82 58.67 58.59 58.35 58.13 57.54 57.51 57.57 57.59 57.27 57.67
60.70 61.10 61.18 60.68 60.59 60.72 60.57 61.08 60.72 60.29 59.72 59.65 59.21 58.70 57.90 57.92 57.38 57.08 57.03 57.18 57.71 57.83
60.60 60.86 60.84 60.77 60.82 61.10 60.68 60.76 60.90 60.25 59.90 59.41 59.47 51.91 47.27 53.34 57.70 57.39 56.74 56.19 56.56 56.41
61.46 60.68 60.41 60.75 60.54 60.24 60.06 60.38 59.74 59.63 59.67 59.03 59.25 47.84 46.31 44.81 56.66 57.07 56.59 55.84 55.05 54.54
61.82 61.41 61.07 60.41 59.86 59.77 59.97 59.47 59.21 58.97 58.85 58.66 58.59 47.19 45.63 44.08 53.44 55.76 55.49 54.35 53.94 55.54
61.78 61.18 61.04 60.20 59.72 59.85 59.31 59.07 58.68 58.80 58.05 57.62 57.13 40.56 41.96 42.83 48.60 42.26 37.30 37.84 38.45 38.37
60.10 61.12 60.45 60.10 59.59 59.54 59.30 58.13 53.94 42.20 40.81 38.45 41.13 38.91 39.81 43.53 39.96 34.36 32.48 32.54 32.76 33.68
52.73 58.65 60.13 59.52 58.87 58.21 49.12 40.09 36.42 34.37 34.04 34.52 35.71 36.49 38.63 38.14 35.44 33.00 31.52 30.80 30.73 31.89

GFSNIL_sfc_wetblb_063.txt.gz
Wetbulb
56.39 55.58 54.44 54.43 55.22 55.30 55.36 55.97 58.23 58.14 57.20 56.89 57.95 58.30 58.53 58.14 58.35 58.50 58.06 57.11 56.77 57.12
57.73 56.87 55.52 54.82 54.79 55.21 55.09 55.89 56.54 58.18 57.60 57.26 57.58 58.33 58.79 58.45 57.47 57.83 57.68 56.94 57.21 56.53
57.70 57.93 57.51 56.15 55.01 54.58 54.42 55.17 55.74 57.53 57.78 57.54 57.42 58.27 58.56 58.51 59.00 57.87 57.43 57.71 56.93 57.33
57.51 57.74 57.63 56.58 55.94 55.54 55.22 54.97 54.78 56.46 57.52 57.99 57.59 57.45 58.23 58.79 58.57 57.76 57.53 57.50 57.23 56.91
57.84 57.78 57.90 57.35 57.42 57.38 55.64 55.77 55.37 55.22 56.31 57.45 57.94 57.79 57.13 57.09 58.30 57.59 56.72 56.77 56.62 56.11
56.63 56.63 57.21 57.86 58.06 57.88 57.64 56.76 56.67 56.06 55.18 55.54 56.23 56.92 57.74 57.81 57.62 57.84 57.68 57.28 56.56 56.52
56.24 56.19 56.25 57.40 57.87 57.85 57.94 57.09 56.87 57.07 56.63 56.25 56.37 56.49 56.54 57.01 57.38 57.48 57.47 57.13 56.79 56.75
57.30 57.36 57.02 56.66 57.42 57.98 57.68 57.68 57.83 57.54 57.32 57.09 56.44 56.58 56.65 56.67 56.36 56.27 56.14 56.52 56.54 56.37
58.87 58.04 57.61 57.49 57.38 57.79 57.66 57.65 58.04 57.26 57.70 57.75 57.52 50.77 46.41 52.54 56.10 55.99 55.60 55.20 55.58 55.71
58.87 58.46 58.66 58.79 58.35 58.00 58.06 58.58 58.07 58.19 58.53 57.85 58.25 48.20 45.97 44.99 55.80 55.77 55.30 55.09 54.96 54.97
54.73 56.87 58.76 58.70 58.77 58.96 59.02 58.52 58.37 58.46 58.51 58.72 59.02 48.58 46.94 44.10 52.68 56.12 56.65 56.44 55.99 55.59
51.69 50.44 50.89 56.54 57.81 58.60 58.46 58.43 58.29 58.80 58.60 58.43 58.41 45.48 44.84 44.46 52.57 53.52 39.86 37.58 39.41 41.96
47.77 46.16 46.42 47.98 51.59 58.57 58.35 57.77 57.68 47.34 41.11 38.57 43.53 38.06 41.03 44.08 46.22 35.62 32.87 32.99 33.75 34.98
41.32 41.25 42.30 43.40 43.89 53.94 52.08 41.04 37.77 35.69 35.58 35.69 36.65 37.80 40.24 41.18 40.74 36.03 32.42 31.46 31.31 32.62

GFSNIL_sfc_wetblb_066.txt.gz
Wetbulb
55.88 54.29 53.96 54.59 55.16 54.84 55.72 55.89 56.52 56.25 56.67 56.94 56.71 56.12 56.29 57.20 56.87 56.11 55.65 55.36 55.78 55.97
55.36 54.96 54.01 53.51 54.47 54.85 54.34 56.19 57.13 56.94 56.08 56.43 56.67 57.18 56.58 55.41 56.11 57.13 57.04 56.67 56.42 56.41
56.29 56.01 55.12 53.60 53.49 54.63 54.91 54.14 55.36 57.38 57.18 56.76 56.63 56.74 56.58 56.41 56.54 56.41 56.94 57.24 56.97 56.85
57.31 57.45 56.89 55.77 54.01 53.93 54.69 53.65 53.66 55.55 57.31 57.13 56.48 55.43 55.60 56.33 57.07 56.73 56.62 56.74 56.40 56.28
57.12 57.78 57.41 56.90 56.60 55.27 53.93 53.93 53.80 53.63 55.52 56.62 56.78 56.27 55.48 54.95 55.81 56.43 56.38 56.43 56.18 55.86
56.30 56.51 56.63 57.01 57.33 56.69 55.82 54.87 54.19 54.02 53.50 54.46 56.26 56.59 56.56 56.12 55.65 55.74 56.53 56.86 56.27 56.09
55.35 56.37 56.37 56.73 56.92 57.38 57.35 56.59 55.79 55.06 54.50 54.10 54.07 55.33 56.43 56.43 55.93 55.66 55.82 56.63 56.87 56.78
56.24 56.47 56.49 56.35 56.51 57.09 57.04 57.32 57.30 56.63 56.27 55.47 54.89 54.42 54.19 54.83 55.01 55.40 55.57 56.08 56.43 57.05
57.58 57.44 56.81 56.29 56.17 56.17 56.43 56.75 56.77 56.86 56.65 56.26 56.04 50.16 46.12 50.63 54.66 54.70 54.46 54.82 56.04 56.72
48.60 52.41 56.79 57.67 56.95 55.98 55.62 56.29 56.41 56.69 56.87 56.30 56.60 48.18 45.85 44.42 54.14 54.99 54.87 54.46 54.43 54.40
45.43 48.04 48.18 49.19 52.32 56.99 57.04 56.59 56.01 56.07 56.37 56.46 56.70 48.00 45.06 43.69 52.37 54.13 54.80 55.00 54.86 55.04
42.47 42.83 43.34 44.39 45.71 47.12 47.88 55.78 57.14 57.20 56.87 56.34 56.56 48.87 45.56 45.54 53.71 54.10 54.26 54.63 49.45 49.47
37.58 37.50 38.48 40.38 41.09 43.44 44.17 45.52 53.26 57.54 57.28 53.34 56.40 45.51 42.96 45.57 54.95 54.04 51.37 36.88 35.77 36.92
33.44 33.57 35.29 35.21 38.07 40.72 41.18 40.94 41.00 39.52 36.00 36.45 36.12 36.89 39.73 42.42 49.90 48.21 35.40 33.22 31.81 32.89

GFSNIL_sfc_wetblb_069.txt.gz
Wetbulb
55.34 56.01 55.31 56.16 56.21 56.57 56.69 56.36 55.89 56.22 56.83 57.28 56.91 56.58 57.16 56.57 55.95 55.59 54.25 53.84 53.91 53.09
55.95 53.65 53.69 54.59 55.06 56.07 57.14 56.49 55.08 55.48 56.14 56.82 56.82 56.42 56.06 56.48 55.89 55.90 54.77 54.31 55.01 54.94
55.75 55.69 53.28 52.61 52.98 53.23 53.39 54.49 55.91 55.64 55.53 55.85 56.54 56.42 55.78 55.22 55.37 56.03 55.82 55.03 53.97 54.37
55.59 54.80 54.09 52.98 52.44 53.28 53.46 53.07 53.72 56.67 56.16 55.61 55.74 56.08 55.60 55.19 54.95 54.37 55.27 55.61 55.30 55.38
55.51 55.77 55.29 54.78 54.36 53.24 53.61 53.62 53.43 53.25 55.63 56.93 56.05 55.74 55.58 55.78 56.27 55.74 54.82 54.77 54.68 54.84
55.11 55.47 55.55 55.84 56.42 56.06 54.48 53.85 53.51 53.74 53.02 54.80 55.62 56.33 56.14 55.37 55.02 54.99 55.52 55.79 55.57 55.42
55.59 55.67 55.91 56.07 56.11 55.78 55.79 55.16 54.25 53.64 53.61 53.54 53.80 54.99 55.54 55.32 54.83 54.52 54.35 54.42 55.00 55.31
55.98 56.49 56.93 56.57 56.16 56.42 55.96 55.75 55.55 55.29 54.84 54.43 53.56 53.38 53.36 54.57 55.16 54.85 54.53 54.75 54.80 55.28
48.77 53.03 54.86 56.63 56.73 56.63 56.66 56.81 56.60 55.50 55.40 55.23 55.06 49.03 45.50 48.77 53.06 53.69 54.14 53.95 54.52 54.90
44.28 45.24 46.10 47.33 48.82 54.37 55.83 56.48 56.31 56.50 56.36 55.75 56.05 47.47 45.58 44.03 52.75 53.22 53.04 53.15 53.38 53.49
39.44 39.79 41.17 42.90 43.89 44.38 46.39 47.43 51.26 55.67 56.32 56.22 56.50 47.94 46.14 45.89 52.76 54.13 54.07 53.87 53.75 53.56
35.60 35.68 37.30 38.31 38.44 39.82 42.98 43.90 44.96 47.09 47.85 53.23 56.28 48.11 44.16 45.04 52.77 53.33 53.80 54.80 54.55 54.21
31.75 32.58 33.73 34.20 34.99 36.62 39.00 40.86 42.10 40.16 36.46 34.93 34.70 36.04 36.03 38.67 51.46 52.63 52.62 53.11 52.01 35.50
29.85 31.29 31.74 31.95 32.78 33.92 35.57 36.85 34.91 32.61 31.44 30.73 31.09 32.69 34.84 36.95 40.84 47.50 46.91 36.38 32.06 32.41

GFSNIL_sfc_wetblb_072.txt.gz
Wetbulb
53.88 54.54 56.21 56.73 56.92 57.18 57.21 57.28 57.28 57.15 57.20 57.23 57.52 57.42 57.37 56.36 55.67 55.63 54.37 53.58 53.99 53.36
53.68 54.27 55.41 56.30 56.48 56.98 57.42 57.52 56.61 56.77 56.98 56.80 57.14 57.16 57.14 56.94 56.58 56.54 56.28 55.05 53.99 53.95
53.67 53.07 53.03 54.53 55.03 55.67 56.33 56.65 55.14 55.55 56.39 56.70 56.72 56.62 56.44 56.34 56.40 55.90 56.08 55.94 54.79 54.24
53.42 53.11 52.23 52.26 52.71 54.54 54.66 55.05 54.83 54.93 55.20 55.34 56.08 56.47 55.86 55.50 55.44 55.51 55.43 55.78 54.93 54.17
55.13 53.65 52.42 52.13 52.01 52.86 53.81 53.41 53.99 55.77 54.42 54.70 55.24 55.85 55.89 55.03 54.93 54.21 53.99 54.97 54.63 54.03
55.33 54.71 53.24 53.39 53.32 52.62 52.74 53.05 52.70 52.86 54.72 55.61 55.14 54.66 55.13 55.46 55.04 54.30 53.77 53.76 53.54 53.92
55.35 55.79 55.72 55.86 55.33 54.64 53.77 53.09 53.70 54.12 53.79 54.08 54.78 55.51 55.22 54.68 54.52 54.92 55.48 55.80 55.60 55.43
51.77 56.48 56.63 56.44 56.58 56.59 55.82 55.49 54.79 53.83 53.21 53.88 53.94 53.74 53.90 54.85 54.84 54.24 53.79 53.93 54.10 54.59
45.03 46.96 46.98 47.67 49.23 54.95 56.50 56.45 56.11 55.34 54.83 54.20 53.78 47.22 44.91 49.05 53.26 53.70 53.90 53.69 54.15 54.42
39.57 40.54 41.23 43.79 44.73 44.11 45.32 47.63 48.92 52.89 55.31 55.62 55.68 46.61 44.90 43.18 51.86 53.15 53.37 53.24 53.18 53.31
35.51 36.27 38.02 38.59 38.27 39.50 41.95 43.95 44.92 45.55 45.87 44.34 41.99 35.33 35.59 36.61 48.82 52.82 53.90 54.17 54.32 53.61
32.70 33.87 34.39 34.38 35.24 37.12 38.63 40.75 41.02 37.95 36.44 33.76 34.82 33.67 34.98 36.06 40.89 50.02 52.39 53.99 54.60 54.17
31.80 32.03 31.59 32.53 33.60 35.57 37.21 37.10 36.33 32.66 31.64 31.25 30.94 32.55 34.27 35.18 38.95 40.90 45.87 49.18 34.53 33.42
29.65 30.38 30.74 31.23 32.46 33.25 33.49 32.40 31.30 29.63 29.50 29.46 29.91 30.37 31.99 32.93 35.10 35.75 32.29 30.86 30.18 30.84

GFSNIL_sfc_wetblb_075.txt.gz
Wetbulb
58.19 57.82 57.90 58.06 57.98 58.55 58.22 58.13 58.15 58.92 58.40 58.37 58.27 57.48 56.91 56.26 55.39 55.72 57.06 57.78 58.45 57.57
57.21 57.08 57.59 57.99 58.87 58.62 58.90 58.52 58.18 58.51 57.98 58.46 57.92 57.86 57.40 56.39 55.71 55.22 55.42 56.18 57.30 55.79
58.66 58.18 57.66 57.94 57.38 57.79 58.37 58.56 58.28 58.84 57.91 57.38 57.94 57.89 57.43 57.16 56.95 56.09 56.16 56.19 55.56 55.50
58.06 58.43 58.52 57.33 57.27 57.39 57.72 57.14 56.68 57.48 57.34 57.12 57.61 57.77 57.17 57.08 57.03 56.63 56.61 56.60 56.25 56.00
57.67 57.65 57.29 57.53 58.25 58.98 57.62 57.35 56.18 56.62 56.84 57.69 57.97 58.99 58.32 57.74 56.53 56.00 55.82 56.29 55.88 55.50
56.32 56.24 56.28 57.11 57.13 57.70 58.15 58.19 57.42 56.88 56.14 56.61 57.98 58.55 57.66 58.09 58.49 57.83 57.28 57.14 56.63 56.42
55.62 56.16 56.26 57.15 57.54 57.30 57.19 57.51 57.77 57.98 58.15 58.11 57.66 56.98 57.06 57.46 57.81 58.08 58.06 58.21 57.64 57.43
47.97 49.16 51.07 53.33 55.42 57.04 57.05 56.99 57.09 57.34 57.20 57.77 57.53 57.09 57.21 56.54 56.12 56.52 57.38 58.68 58.29 58.75
42.48 43.67 44.69 46.37 47.34 47.89 47.93 49.12 53.47 54.93 54.65 54.30 49.99 36.50 38.42 44.82 55.85 56.60 56.54 56.87 57.92 58.55
39.30 39.92 40.29 41.47 42.25 42.58 44.31 45.84 46.12 45.14 44.98 41.92 36.17 35.03 36.21 36.36 43.90 50.99 53.98 54.65 55.24 55.81
37.44 37.69 38.56 39.75 40.36 41.16 42.95 42.59 39.75 38.16 36.42 37.38 35.07 34.39 35.01 34.87 42.17 45.89 49.27 52.31 53.52 52.80
34.96 35.19 35.98 36.42 37.28 38.80 39.74 38.25 35.05 34.04 33.22 33.35 32.77 32.87 33.38 35.10 40.64 43.26 44.51 36.55 34.53 33.69
32.97 33.10 33.28 33.97 35.07 35.55 35.26 33.60 32.82 31.43 31.78 31.27 31.92 31.34 31.97 34.90 38.91 38.04 35.01 31.69 30.59 31.77
31.01 31.28 32.49 32.68 33.42 33.35 32.53 31.86 31.21 30.48 30.68 30.33 30.07 30.62 30.64 30.68 31.02 30.35 28.30 27.32 26.98 28.11

GFSNIL_sfc_wetblb_078.txt.gz
Wetbulb
61.67 60.09 59.85 60.51 61.73 61.19 59.86 60.24 61.18 58.87 57.90 57.62 56.55 56.84 57.26 57.54 57.65 59.04 59.08 60.22 60.47 60.53
61.46 61.50 60.22 60.48 60.31 59.59 60.35 60.18 60.05 59.41 59.13 58.56 57.56 56.66 56.56 55.92 55.87 56.22 57.88 57.50 58.24 58.71
61.02 61.18 60.25 59.75 59.51 60.92 60.83 60.39 60.00 59.30 58.50 58.37 58.19 58.66 57.26 56.19 56.44 55.62 55.68 56.61 56.38 56.95
59.45 60.07 59.55 59.14 58.93 59.27 59.62 59.87 58.77 59.77 59.62 58.78 58.08 57.92 57.26 57.32 55.93 55.18 55.69 56.10 55.54 55.87
59.14 60.12 60.14 59.25 58.96 59.29 59.01 59.35 59.61 59.55 59.18 58.49 57.85 57.96 57.66 57.05 57.00 55.87 54.45 55.30 56.11 55.84
57.08 57.12 57.65 59.19 60.17 59.94 59.35 58.52 58.41 58.70 58.33 58.35 58.38 58.50 58.69 59.08 59.04 59.08 58.39 57.55 56.00 55.82
55.09 56.67 57.12 57.71 58.61 59.15 59.63 59.16 58.34 58.12 58.10 58.59 58.86 58.85 59.59 59.99 60.19 59.16 59.04 59.82 59.47 59.36
46.52 48.25 49.23 50.41 50.83 54.76 57.41 58.06 59.63 59.37 59.42 59.25 51.98 40.95 43.95 57.02 58.53 58.17 58.51 59.31 59.15 59.66
43.90 43.44 44.07 45.05 45.99 47.42 48.22 48.72 47.55 46.09 44.58 42.12 38.93 35.69 36.42 39.44 52.08 55.24 56.40 56.41 57.22 57.91
42.34 41.54 42.01 43.46 43.57 44.74 44.42 42.81 40.77 40.77 40.34 36.08 34.51 34.26 34.86 34.85 40.76 46.20 49.76 51.25 50.06 52.17
39.39 40.92 42.95 43.40 43.11 42.76 40.53 38.45 36.77 36.50 36.52 34.96 33.13 33.23 33.58 34.05 42.36 45.82 38.85 34.92 34.95 36.79
38.11 38.11 40.05 39.90 39.72 40.55 39.21 37.04 35.62 34.99 34.81 35.28 32.91 32.40 33.21 39.39 45.45 38.04 34.46 32.80 32.16 32.79
35.49 36.75 36.66 37.42 37.26 37.67 37.22 35.71 35.50 34.70 35.47 33.10 34.40 30.94 31.86 36.46 36.34 32.67 31.20 29.79 29.84 29.72
34.74 34.89 34.91 35.74 36.45 36.09 35.21 35.02 34.82 33.85 33.40 32.96 30.69 30.74 30.24 31.29 33.34 30.14 28.38 27.68 27.63 28.98

GFSNIL_sfc_wetblb_081.txt.gz
Wetbulb
63.41 62.52 62.86 62.91 61.86 60.87 59.83 59.65 58.80 58.39 58.23 58.00 58.72 59.20 60.27 61.09 61.48 61.58 61.60 61.11 60.98 60.38
62.46 61.66 61.79 62.21 62.35 62.13 62.11 61.31 60.84 58.98 57.49 56.95 57.40 57.94 58.51 58.66 59.66 60.87 60.73 60.23 60.81 59.84
62.09 61.84 62.02 62.27 61.39 60.65 61.12 61.05 61.27 60.34 59.07 57.31 56.68 57.08 56.68 56.61 56.77 56.53 57.17 57.40 56.91 57.38
60.64 61.48 61.81 61.29 61.31 60.57 61.30 60.63 59.97 60.23 59.53 58.35 57.03 56.33 55.83 56.35 55.31 55.00 55.23 56.04 56.19 56.06
60.31 60.13 60.65 60.21 60.92 61.20 60.24 60.00 59.56 59.53 59.41 58.93 58.41 57.88 57.19 56.05 55.53 54.95 54.82 54.70 54.56 54.76
59.23 59.87 59.41 59.18 59.67 59.81 59.34 58.68 58.78 59.16 59.28 59.41 59.28 58.57 57.92 57.30 57.08 56.61 55.19 55.87 54.88 55.07
55.84 58.60 59.22 59.41 60.25 59.89 59.72 58.47 58.17 58.25 58.57 58.85 58.22 55.59 56.62 58.11 57.91 57.92 58.28 58.94 58.81 57.97
46.95 48.25 49.00 49.52 52.87 55.50 52.98 51.98 52.13 55.63 48.30 44.23 41.48 38.50 40.66 48.94 55.79 58.57 58.91 60.49 59.15 59.19
43.93 44.76 45.11 46.14 46.99 45.38 44.00 44.34 44.80 40.82 39.58 38.50 36.86 34.90 35.61 38.35 50.93 54.74 53.45 53.10 50.10 51.77
43.38 43.14 43.70 44.42 42.20 40.79 39.58 39.43 38.82 38.37 36.36 34.04 33.91 34.36 35.49 35.47 44.61 43.44 38.87 38.10 38.62 41.36
42.22 42.74 43.03 42.18 40.25 38.93 37.57 36.40 36.48 36.60 35.47 33.57 32.70 33.51 34.85 35.78 39.98 36.29 34.12 33.19 34.23 34.61
40.31 40.64 40.64 39.62 39.39 38.68 37.76 36.37 35.57 35.36 35.76 34.01 31.84 32.99 34.63 39.45 37.55 34.32 32.59 31.99 31.49 32.57
36.91 37.95 37.24 37.83 37.91 38.21 38.24 36.79 36.46 34.93 34.15 33.57 31.84 31.33 33.76 36.24 34.74 32.10 30.70 30.58 30.31 29.95
35.52 35.82 36.56 37.68 37.92 37.54 36.97 36.44 35.14 33.68 33.59 32.23 31.47 30.03 31.20 33.58 34.64 32.56 31.37 29.99 28.92 29.64

GFSNIL_sfc_wetblb_084.txt.gz
Wetbulb
62.17 60.99 61.09 61.42 60.96 59.71 58.98 58.68 59.17 58.79 58.93 59.08 59.62 59.36 59.31 58.81 59.39 59.18 58.69 58.28 58.01 57.76
61.71 61.18 60.76 61.04 61.23 60.91 60.10 59.76 58.79 58.34 57.87 58.11 58.25 59.42 59.34 58.59 58.57 58.70 58.83 58.45 58.21 57.80
61.20 60.96 61.03 61.04 61.01 60.80 60.97 60.09 59.23 58.54 57.56 57.11 57.37 57.57 57.71 57.87 58.12 58.18 58.24 57.84 57.06 56.83
60.26 60.38 61.03 61.14 60.86 60.17 60.68 60.03 59.95 59.10 57.62 56.57 56.53 56.95 56.83 56.49 56.43 56.15 55.55 55.83 55.77 55.67
59.89 60.17 60.01 59.65 60.04 60.07 59.54 59.77 59.42 59.31 58.69 57.62 56.63 56.27 55.97 55.57 55.33 55.23 54.69 55.05 54.97 55.09
58.71 58.65 58.84 59.16 59.34 59.74 59.09 58.78 58.56 58.56 58.28 58.27 57.74 56.43 56.07 55.79 55.09 54.90 54.40 54.33 53.88 53.90
52.60 54.94 54.82 56.59 58.18 58.74 58.68 57.93 57.82 56.45 49.72 47.95 45.04 46.11 50.28 56.66 56.54 55.95 55.64 55.35 55.23 54.96
48.94 49.34 50.83 49.54 49.03 48.57 48.68 47.11 47.90 44.44 42.54 40.54 38.96 37.55 38.52 44.96 53.86 57.21 56.52 56.42 57.05 51.03
45.39 45.67 44.33 43.98 42.93 42.30 41.78 41.30 39.51 37.64 37.19 36.85 36.12 35.76 36.63 39.06 49.73 45.44 44.58 43.18 43.34 44.15
43.99 42.42 41.15 40.17 39.26 38.53 38.30 37.71 36.34 35.77 35.47 34.25 34.75 35.83 37.84 38.51 39.20 36.63 35.91 35.93 36.73 37.61
41.65 40.86 40.47 39.03 37.47 36.71 36.64 36.38 35.70 34.50 33.68 33.03 33.87 36.85 36.54 35.60 35.32 33.39 32.11 32.15 33.46 32.95
39.67 39.75 38.69 37.69 37.11 36.52 35.74 34.41 33.82 33.55 32.60 32.09 31.78 34.85 36.46 35.58 33.47 31.99 30.88 30.92 31.22 31.23
37.08 37.28 37.19 37.71 37.27 36.65 35.84 34.04 32.53 30.99 31.65 30.94 30.99 33.29 34.72 34.69 32.84 30.34 29.14 29.35 29.69 31.17
34.87 35.43 35.44 35.70 36.61 35.58 34.22 33.42 31.90 30.67 29.61 29.43 29.87 30.62 32.64 34.46 32.44 29.73 28.13 27.57 27.37 28.28

GFSNIL_sfc_wetblb_087.txt.gz
Wetbulb
59.53 58.55 58.94 59.51 59.18 58.20 58.33 57.78 58.13 58.65 59.71 59.62 60.03 59.59 59.78 59.82 59.43 59.34 58.54 57.75 57.78 57.71
59.25 59.04 58.50 58.73 58.97 58.90 58.92 58.94 58.29 58.47 58.57 59.21 59.01 58.81 58.72 58.76 58.81 58.71 58.42 57.52 57.62 57.53
59.42 59.05 59.78 60.50 59.87 58.50 58.72 58.81 58.36 57.79 57.77 57.69 58.23 58.97 58.44 57.82 58.34 58.39 58.10 57.68 57.08 56.72
59.47 59.91 60.42 60.28 60.20 59.97 59.19 58.61 58.28 58.02 57.14 57.02 56.98 57.39 58.43 57.96 58.01 57.44 57.28 56.72 56.70 56.02
59.18 59.86 59.75 59.51 59.08 59.79 59.48 59.47 58.48 58.16 57.28 56.78 56.70 56.80 56.56 56.84 57.36 56.74 56.22 55.62 55.36 55.06
58.49 58.86 58.42 58.58 58.87 59.08 58.67 58.15 58.32 58.45 57.78 57.02 56.52 56.32 56.36 56.26 55.92 56.26 56.14 55.64 55.38 54.76
53.88 54.05 53.30 54.02 55.49 56.34 56.85 52.88 49.47 48.33 47.02 46.66 46.22 48.94 54.43 56.02 55.40 55.44 55.23 55.23 55.41 54.81
49.85 49.33 47.89 46.93 46.79 46.03 45.57 45.19 44.76 42.77 41.51 40.86 40.34 39.08 43.30 51.44 54.18 55.32 53.26 51.94 45.08 42.12
44.49 43.68 43.16 42.20 41.85 41.13 40.14 39.09 38.42 37.32 37.72 38.24 38.41 37.43 38.17 44.10 43.25 43.17 42.88 42.62 41.71 38.59
41.36 39.72 39.38 39.33 38.88 37.54 36.61 36.21 35.50 35.61 36.16 37.13 37.75 36.77 37.00 36.75 36.42 35.51 35.56 35.78 36.60 35.91
39.64 38.74 38.20 37.17 36.14 35.71 35.17 33.96 33.59 33.30 34.07 35.28 36.18 35.51 35.02 34.08 33.42 32.43 32.10 32.23 32.45 32.96
38.50 37.49 36.90 35.59 34.73 34.53 33.55 32.38 31.68 32.14 32.22 33.19 34.17 35.46 34.44 33.23 31.79 30.64 30.45 31.31 31.48 31.63
35.72 36.37 35.75 34.66 33.90 33.32 31.99 30.90 30.67 30.25 31.27 32.30 32.38 33.86 33.78 32.44 30.45 28.30 27.96 28.96 30.03 31.85
33.53 33.19 34.30 34.59 33.93 32.46 31.31 30.34 29.21 28.87 29.27 30.08 30.90 31.69 32.42 31.68 29.68 28.10 27.44 27.51 27.90 29.73

GFSNIL_sfc_wetblb_090.txt.gz
Wetbulb
58.85 58.24 57.99 58.39 58.99 58.43 58.61 58.72 58.92 59.79 60.19 60.22 60.36 60.56 60.81 60.65 60.07 59.68 59.00 58.08 57.59 57.30
58.69 57.66 57.75 58.07 58.68 58.14 58.71 57.95 57.49 57.86 58.14 58.95 59.32 59.52 59.47 59.91 59.18 59.32 58.97 58.17 58.03 57.77
58.86 58.68 59.15 58.51 57.85 58.29 58.34 58.42 57.63 57.80 57.92 58.42 58.54 58.64 58.76 58.95 59.06 58.54 58.58 58.33 57.38 56.76
58.51 59.54 59.62 58.80 58.41 58.62 58.41 58.39 57.89 57.53 57.66 57.24 57.58 58.14 57.72 57.60 58.00 57.95 57.80 57.84 57.26 56.18
59.46 59.76 59.35 59.43 59.51 58.95 58.31 58.18 58.09 57.88 57.28 57.22 57.04 57.06 57.56 57.14 57.30 57.10 56.60 56.62 56.24 55.57
58.54 58.64 58.78 58.70 59.29 59.47 59.06 58.50 58.18 57.76 56.96 56.76 56.68 56.68 56.56 57.20 57.20 56.94 57.19 56.75 55.98 55.43
53.67 53.78 53.74 54.01 53.63 54.29 52.86 51.32 49.70 49.36 49.01 49.42 49.80 52.82 56.15 56.54 56.48 56.60 56.56 56.46 56.58 56.00
48.41 48.42 48.27 47.16 46.00 45.01 44.30 44.26 44.45 43.71 42.66 42.52 42.26 41.63 47.96 54.16 55.37 54.59 47.56 45.58 43.38 41.61
44.78 43.51 42.22 41.65 41.03 40.06 39.35 39.08 39.11 38.60 39.76 39.74 39.48 38.36 39.63 44.94 45.37 45.20 43.01 40.25 39.68 39.55
39.81 39.74 39.04 38.40 37.45 36.41 35.94 36.22 35.96 36.95 37.12 35.86 35.84 35.96 36.40 36.94 37.53 36.69 37.03 37.32 37.30 37.43
37.58 36.62 36.45 35.77 34.53 34.09 34.03 33.57 33.84 34.99 35.82 34.55 34.42 34.42 34.33 33.96 33.57 32.41 32.23 32.95 34.40 35.60
35.41 34.23 33.66 32.22 32.17 32.52 32.10 31.90 32.04 33.17 33.91 33.38 33.06 33.53 33.22 32.58 31.47 30.83 31.02 31.97 32.40 33.93
34.08 33.22 31.91 31.78 31.28 31.28 30.98 30.33 30.52 30.35 31.56 32.91 32.53 33.08 32.48 31.74 30.49 29.08 29.46 30.61 30.96 31.71
32.19 32.30 32.39 32.19 31.89 31.13 30.21 29.34 28.75 28.66 29.59 30.31 31.16 31.58 32.24 31.55 29.87 28.98 28.50 28.86 29.51 31.33

GFSNIL_sfc_wetblb_093.txt.gz
Wetbulb
58.69 58.48 58.26 58.10 57.95 58.31 58.68 59.11 59.64 59.65 60.40 60.95 60.66 60.75 60.72 60.34 60.30 60.09 59.51 58.19 57.21 56.45
58.78 58.10 57.57 57.57 58.65 58.86 58.82 58.73 58.93 59.96 60.01 59.73 60.05 60.11 60.13 59.99 59.77 59.75 59.50 58.85 57.37 56.80
58.42 58.12 57.57 57.82 57.02 57.16 56.48 56.90 57.74 57.50 57.72 57.94 58.30 58.67 58.95 59.07 59.70 59.54 59.30 58.54 57.29 57.03
57.73 57.65 57.60 57.28 56.60 56.58 56.66 57.22 56.94 57.49 56.88 56.38 57.46 57.69 57.74 57.92 58.30 58.30 58.36 58.29 57.43 56.79
58.13 58.29 58.07 56.90 56.76 57.02 56.60 56.26 56.14 57.16 57.26 57.34 57.18 57.38 57.16 56.78 57.02 57.26 57.06 57.32 57.30 56.73
58.38 58.59 58.63 58.93 58.06 58.41 56.98 57.24 57.60 57.36 56.88 56.92 56.98 56.66 56.82 56.96 56.64 57.32 57.26 57.12 56.76 56.00
57.42 57.32 56.36 55.83 55.96 55.24 54.36 52.02 50.59 50.52 49.70 50.11 51.56 54.45 56.25 56.84 56.82 56.78 56.94 57.00 57.03 56.36
48.69 50.75 49.51 48.08 47.02 46.23 45.47 45.06 45.22 44.47 43.36 42.97 42.93 42.22 44.80 54.71 55.59 51.08 47.81 46.18 44.30 43.84
40.90 42.26 41.40 41.23 40.96 40.58 39.88 40.29 40.38 39.15 38.38 37.86 38.06 37.19 39.49 47.05 46.87 45.49 43.51 40.44 39.18 38.70
37.03 36.78 36.76 36.55 36.56 36.46 36.51 37.71 36.97 36.01 35.62 34.58 35.28 35.83 36.61 37.43 38.71 38.15 38.25 38.60 38.60 36.71
34.78 33.05 33.62 33.71 33.31 33.56 34.10 34.49 35.01 34.40 34.02 33.42 33.74 34.39 34.48 34.42 34.61 33.89 33.57 34.41 36.75 35.55
34.25 32.90 32.39 31.19 31.15 31.59 31.52 31.72 32.25 33.37 32.89 32.20 32.45 33.50 33.31 33.02 32.40 31.47 31.56 33.20 34.02 33.47
32.28 32.06 31.72 31.17 30.68 30.91 30.73 30.14 30.32 30.25 31.19 32.42 31.70 33.16 33.04 32.22 31.48 30.25 30.14 30.67 31.35 32.39
30.33 31.51 31.66 31.41 31.17 30.63 29.83 29.31 28.94 28.67 29.37 30.07 30.91 31.45 32.45 32.06 30.51 29.84 29.62 29.85 30.30 31.29

GFSNIL_sfc_wetblb_096.txt.gz
Wetbulb
58.49 58.29 58.18 59.04 59.44 59.69 60.00 60.25 60.54 60.15 60.14 59.83 59.62 60.66 60.44 59.88 59.82 59.64 59.42 58.82 58.47 57.62
58.55 57.90 58.00 58.24 58.84 59.64 59.77 59.02 59.04 59.25 59.28 60.41 60.43 60.21 60.22 59.83 59.63 59.60 59.49 58.94 57.93 57.40
58.93 58.21 58.26 58.16 58.02 58.42 58.56 58.59 58.40 58.62 59.19 59.67 60.05 60.03 59.87 59.69 59.78 59.49 59.66 59.50 57.48 56.97
57.82 57.88 58.04 57.96 58.02 57.49 57.37 57.75 57.81 57.93 58.24 57.76 57.80 58.00 58.16 58.35 58.49 58.42 58.93 58.88 57.82 56.72
57.60 57.98 57.44 57.30 57.10 56.40 56.20 55.92 56.60 57.24 56.50 56.48 56.46 57.10 57.02 56.78 57.32 57.30 57.28 57.68 58.14 56.62
57.78 57.96 57.26 57.00 56.60 56.24 56.10 54.89 55.35 55.38 56.66 56.80 57.20 56.92 56.90 56.88 56.86 56.92 57.16 57.89 57.28 56.56
47.22 57.24 58.16 57.88 57.74 57.18 56.92 55.15 53.21 51.75 50.11 50.29 50.60 51.98 55.01 56.54 56.56 56.68 56.74 57.02 57.32 56.99
40.86 42.31 46.79 51.40 48.75 47.55 46.86 46.37 46.63 45.24 43.47 43.25 42.20 40.85 42.99 51.18 55.67 53.66 49.21 45.94 44.11 45.90
37.25 37.58 37.97 40.32 41.53 41.24 40.96 40.25 39.91 38.71 38.10 37.65 37.41 36.93 38.63 46.90 47.08 45.49 43.96 41.16 40.11 39.44
36.26 35.33 33.93 34.36 36.80 36.80 36.88 36.88 35.80 35.36 35.22 34.30 35.15 36.16 36.79 37.33 38.74 38.44 38.78 38.77 37.75 36.86
34.65 34.22 33.72 32.24 32.50 33.48 34.00 33.93 33.66 33.42 33.61 33.37 33.97 34.88 35.09 34.89 35.21 35.17 35.34 35.41 35.06 34.45
32.33 32.33 32.22 32.05 31.42 31.46 31.21 31.14 31.24 32.09 32.31 32.26 32.86 34.10 34.25 33.54 32.55 31.77 32.08 33.25 33.40 33.00
31.21 30.78 30.00 30.32 30.65 30.92 30.96 30.31 30.29 30.18 30.95 32.28 31.87 33.70 33.73 33.10 32.15 30.69 30.40 30.95 31.75 32.69
29.05 29.57 29.54 29.32 29.47 29.55 29.43 29.34 28.99 28.76 29.45 30.28 31.29 32.13 32.92 32.86 31.03 30.17 29.68 29.30 29.59 30.90

GFSNIL_sfc_wetblb_099.txt.gz
Wetbulb
62.72 62.59 64.21 64.37 62.75 62.40 61.91 62.07 62.49 62.24 62.85 62.66 62.85 61.81 61.74 61.34 61.41 61.58 60.52 60.31 59.99 59.44
61.33 60.67 61.06 64.21 64.23 63.43 62.60 61.78 61.27 62.32 61.46 61.33 60.75 61.21 61.82 60.69 60.86 61.04 60.80 60.66 59.86 59.18
60.64 60.81 60.42 61.14 60.43 61.02 61.00 59.82 61.24 61.04 60.78 60.30 60.56 61.93 61.53 60.37 60.61 60.36 60.50 60.49 59.46 59.04
59.93 59.08 59.22 59.39 60.60 60.27 59.65 59.54 59.42 59.61 59.88 60.36 60.56 60.86 60.16 60.14 59.99 59.59 59.63 59.61 59.01 58.16
58.97 59.43 59.48 59.07 59.54 59.70 58.32 58.58 58.82 59.04 59.07 58.81 59.29 59.07 58.91 58.53 58.73 59.01 58.17 58.31 58.34 57.77
46.84 56.57 58.74 58.96 58.28 58.57 57.96 57.72 58.02 58.32 58.29 57.97 57.65 57.24 57.11 57.97 58.75 58.62 58.04 58.38 58.40 57.87
42.25 43.56 49.18 58.26 58.51 58.25 58.05 58.35 58.41 57.42 55.69 54.89 53.78 54.75 56.93 57.49 57.65 57.21 58.42 57.49 57.61 57.98
39.09 38.98 39.79 44.58 44.58 55.89 53.05 50.98 49.42 47.38 45.31 44.43 43.98 42.56 46.17 52.28 56.29 57.45 52.28 47.56 45.12 42.89
37.38 37.28 36.11 36.71 38.64 40.02 42.62 41.73 40.73 39.44 39.33 39.28 38.97 37.17 39.46 47.75 49.18 46.49 44.72 42.49 41.18 39.43
35.82 35.92 36.34 35.23 34.78 33.83 35.47 36.45 35.70 35.71 35.87 35.44 36.75 36.59 37.61 38.27 40.81 39.69 39.08 38.61 37.94 37.94
32.96 33.82 34.90 34.46 33.05 31.98 31.96 33.10 33.58 33.70 34.63 34.50 34.86 35.10 35.64 35.92 36.89 35.40 34.61 34.58 35.09 34.93
30.90 30.41 31.42 32.04 31.98 31.81 31.49 31.18 31.63 32.58 32.80 33.25 33.95 34.49 34.40 34.50 33.95 32.55 32.50 33.22 33.56 33.43
29.99 29.48 28.69 29.35 30.35 31.47 31.34 30.11 30.55 30.20 31.36 32.62 32.66 33.99 33.98 33.76 32.87 31.29 30.71 31.55 31.91 32.84
29.66 29.14 29.22 29.39 29.78 29.43 29.25 29.33 28.60 28.11 28.54 29.38 30.74 31.72 33.10 32.89 31.24 30.40 29.43 28.76 29.03 30.18

GFSNIL_sfc_wetblb_102.txt.gz
Wetbulb
62.94 63.37 66.47 64.97 64.43 63.61 63.76 64.73 66.58 64.20 62.19 62.26 63.20 63.66 63.86 63.39 65.48 65.32 64.56 62.48 61.67 60.61
65.58 65.92 64.87 64.49 64.47 64.05 66.85 66.63 65.03 63.26 62.11 62.06 62.62 63.72 63.19 64.27 64.63 63.24 62.01 62.11 62.48 60.69
63.39 63.98 64.36 64.49 64.48 62.91 65.69 64.73 64.02 62.79 63.02 62.43 62.58 63.25 63.58 63.63 62.74 61.07 61.89 62.06 60.76 60.96
61.30 62.76 63.15 63.11 62.84 61.98 63.06 63.78 62.54 62.32 61.23 60.66 61.58 62.42 61.73 61.08 62.17 61.89 60.15 61.60 60.64 60.78
48.42 54.89 59.95 60.22 60.64 61.69 61.16 62.29 62.47 62.07 60.30 60.35 61.24 61.18 61.48 61.24 60.89 60.56 59.67 59.84 59.51 59.61
42.46 45.42 47.63 57.95 59.94 60.55 61.41 61.65 60.82 60.70 59.92 59.86 61.91 61.19 60.22 60.50 60.07 60.13 60.10 59.75 59.33 59.68
41.40 41.70 42.41 46.41 53.62 59.03 59.64 59.63 59.86 60.82 59.49 59.41 59.14 59.44 58.96 58.73 58.81 58.83 60.03 61.47 60.38 60.52
38.55 39.11 39.06 39.32 41.22 44.94 51.86 57.60 56.66 53.53 51.49 51.57 51.33 45.61 49.95 56.25 58.51 58.24 57.81 51.67 49.46 45.44
35.29 37.78 38.30 37.17 36.42 37.08 37.63 40.66 44.13 44.77 45.23 42.12 39.47 37.36 39.04 46.37 53.71 50.44 49.63 46.21 44.14 41.93
32.65 33.89 35.34 36.18 35.38 33.89 34.21 34.59 36.01 38.29 37.82 36.75 37.12 36.96 38.20 39.63 45.32 42.09 40.69 40.80 41.38 40.55
31.24 31.42 32.51 34.19 33.68 33.00 32.82 32.08 32.10 33.38 35.44 35.23 35.06 35.38 35.92 35.99 37.31 37.05 36.11 36.13 37.11 37.31
30.39 30.16 30.53 29.93 31.41 32.04 32.15 31.47 30.64 31.42 33.12 33.84 34.20 34.72 34.66 34.83 33.86 32.83 32.75 33.49 34.38 34.14
32.04 30.67 30.13 31.04 30.34 30.58 30.35 28.94 29.06 28.27 29.98 31.76 32.23 33.96 33.83 33.58 32.65 30.97 30.93 31.33 31.58 32.29
31.55 31.54 31.73 31.73 31.92 31.73 30.83 29.43 28.19 27.04 26.96 27.98 29.94 31.29 32.45 32.35 30.75 29.54 29.18 29.31 29.34 30.70

GFSNIL_sfc_wetblb_105.txt.gz
Wetbulb
47.49 50.52 55.22 59.64 63.26 65.18 65.94 65.61 63.91 64.33 64.06 64.55 64.55 63.88 64.44 65.13 65.59 65.19 64.44 64.51 64.76 63.78
46.86 51.03 58.87 63.36 65.65 66.10 66.91 65.76 64.33 64.30 63.95 64.24 64.71 64.31 64.55 63.25 63.76 64.65 65.42 65.95 64.01 62.94
45.87 49.62 60.75 64.71 65.16 65.67 66.48 66.24 65.72 64.80 63.76 62.75 62.58 64.30 64.04 62.00 63.54 63.87 65.49 65.41 64.47 63.79
44.27 47.41 52.19 62.86 64.28 65.24 66.20 65.73 64.78 64.35 62.81 62.38 62.48 60.80 61.05 62.39 61.63 62.42 63.36 62.97 62.33 61.24
41.50 43.69 46.47 50.26 57.60 64.18 64.50 64.65 64.61 62.84 63.29 62.94 62.05 62.62 58.66 57.81 60.09 61.13 61.86 62.05 61.15 60.07
38.75 41.22 42.05 43.79 47.54 60.09 62.70 62.34 61.76 62.56 62.53 62.78 62.48 62.31 61.26 58.79 58.14 61.24 62.30 61.98 60.63 59.59
36.31 38.63 40.53 40.87 43.07 43.51 49.80 60.53 60.82 61.55 62.05 61.46 61.66 62.19 62.44 61.10 60.32 60.90 61.39 61.54 61.25 60.69
34.47 36.62 38.48 39.13 38.77 39.83 39.44 41.23 50.64 56.96 54.52 56.58 54.92 55.19 59.98 60.36 59.44 59.46 59.30 56.53 54.68 49.10
33.81 33.63 34.52 35.91 37.11 36.39 36.87 35.81 37.43 40.35 43.60 42.56 41.30 38.67 41.18 53.73 55.45 53.59 52.37 47.65 46.09 44.58
32.09 32.11 31.97 33.57 33.93 34.32 34.78 34.72 33.24 34.10 35.99 36.46 37.60 38.04 40.49 41.13 44.44 41.28 41.22 41.47 41.60 42.08
31.85 31.50 31.75 31.34 31.15 31.68 32.29 32.29 31.79 31.59 32.79 34.16 34.87 35.79 36.71 36.72 37.94 36.51 35.54 35.74 36.59 37.61
32.52 32.04 31.88 31.20 30.38 30.16 28.88 28.90 29.04 30.13 30.49 31.80 32.27 34.16 35.05 34.99 33.71 32.44 32.00 32.69 33.59 34.33
32.77 32.52 31.97 32.15 31.97 31.94 30.91 28.52 27.80 27.67 28.58 30.25 30.24 32.59 33.20 32.97 32.11 30.30 30.22 30.81 31.19 32.04
32.53 32.67 32.82 33.24 32.70 32.34 31.97 31.76 29.77 27.91 27.17 27.54 28.59 29.61 31.45 31.62 29.85 29.03 28.37 28.10 28.37 29.80

GFSNIL_sfc_wetblb_108.txt.gz
Wetbulb
42.48 44.02 46.00 47.58 49.96 51.53 55.21 59.51 62.72 63.74 64.58 64.66 64.62 64.34 64.05 63.41 61.99 60.61 60.24 60.70 62.16 61.86
42.36 44.15 45.14 46.94 49.83 53.25 56.25 59.19 63.50 64.62 64.02 64.04 64.22 63.78 60.77 59.38 59.75 59.30 61.41 58.91 60.90 61.60
40.95 43.10 44.72 47.08 49.35 55.81 58.89 62.35 63.53 64.01 64.05 63.46 63.60 63.12 61.30 61.53 62.06 63.08 62.92 62.66 61.92 61.65
39.22 40.79 42.87 43.92 45.80 47.81 51.90 62.11 62.78 63.77 63.51 63.02 62.59 62.79 62.52 62.24 62.35 61.48 60.83 61.39 61.06 61.07
37.74 38.74 40.39 41.12 43.28 46.73 46.78 52.84 62.02 63.00 62.93 62.70 61.57 61.38 61.53 60.45 60.23 59.80 57.27 58.64 59.74 59.85
35.34 36.18 37.53 38.98 40.39 42.95 43.74 46.57 54.46 61.13 61.65 61.17 60.80 60.03 59.92 59.39 59.57 58.31 58.11 58.28 58.76 59.28
34.23 34.97 35.44 37.11 38.28 39.73 40.84 41.66 43.24 53.02 59.19 60.84 60.78 60.47 60.01 58.19 57.16 56.21 57.36 59.46 59.91 59.71
33.76 34.26 34.03 34.48 35.19 36.87 37.82 38.62 38.61 40.58 42.60 45.38 47.75 47.71 54.54 59.24 57.66 55.75 55.55 55.82 52.10 47.75
33.38 33.17 32.47 32.38 32.15 32.66 33.88 34.76 35.72 35.16 36.41 38.61 39.54 36.91 41.59 54.13 57.97 56.55 54.36 47.99 46.74 43.64
32.93 32.50 32.39 31.96 30.74 29.92 30.12 31.61 31.93 33.04 33.24 32.86 33.77 36.00 38.42 41.85 44.06 41.77 40.55 41.69 42.89 41.80
32.48 32.45 32.68 32.23 30.83 29.60 28.80 28.08 28.23 29.43 31.27 31.75 32.47 34.09 34.80 35.44 36.75 35.09 34.43 34.58 35.55 36.51
32.32 31.79 32.33 31.76 31.61 31.46 29.69 28.33 27.48 27.74 28.01 28.99 30.55 33.25 33.25 33.16 32.37 31.28 30.94 31.72 32.73 32.73
32.33 31.20 31.09 31.85 31.68 32.15 32.09 30.97 30.11 28.14 28.09 29.14 28.19 31.53 32.27 31.47 30.42 28.85 29.06 29.26 30.13 31.76
30.80 30.87 30.30 30.70 31.67 31.83 31.86 30.98 29.82 29.10 29.65 29.48 29.30 29.23 30.58 30.24 28.05 27.71 27.35 27.41 27.81 29.21

GFSNIL_sfc_wetblb_111.txt.gz
Wetbulb
40.12 40.82 41.39 43.46 44.48 45.26 46.91 49.84 51.80 53.56 57.40 58.63 61.45 62.79 63.01 62.58 61.13 59.54 61.34 60.53 60.85 60.90
39.63 40.16 40.42 41.58 43.77 45.74 48.41 50.52 53.74 53.13 55.55 55.11 57.48 58.84 62.00 61.74 60.00 58.51 56.34 56.73 60.89 60.45
38.32 38.87 39.49 40.85 42.62 43.40 45.52 47.86 50.39 55.79 56.56 58.29 56.02 58.64 61.54 61.21 60.28 59.65 59.23 58.41 58.78 58.94
36.56 37.58 38.17 39.25 40.40 41.29 43.20 45.49 48.48 51.13 59.62 60.60 60.89 60.89 60.62 60.58 59.73 59.14 58.42 59.36 59.05 57.78
35.92 36.40 36.35 36.99 38.35 39.73 40.53 42.79 44.95 49.57 56.19 60.63 60.22 60.40 60.70 59.94 59.86 59.38 59.43 59.58 59.12 58.61
34.49 34.83 34.40 34.92 35.94 37.03 37.84 39.41 41.01 44.23 46.15 51.95 59.92 60.77 61.55 61.00 61.16 60.83 60.47 59.96 58.99 58.12
33.98 34.32 33.67 33.70 33.54 33.95 35.25 35.96 37.65 39.38 41.23 42.98 44.29 46.51 50.27 60.00 59.50 57.45 57.18 57.56 56.30 55.70
33.73 34.43 33.57 32.50 31.77 31.93 32.07 33.00 34.64 36.04 36.70 37.31 38.17 37.24 39.60 46.40 57.23 55.49 55.00 53.21 50.89 49.56
33.25 33.48 33.01 32.37 31.11 30.29 29.91 30.38 31.06 31.92 33.37 33.80 35.57 35.74 35.71 40.39 56.79 54.70 52.13 47.08 45.02 44.26
32.48 32.82 32.63 32.62 31.44 30.24 29.14 29.23 28.89 29.01 30.39 30.89 32.75 35.09 34.59 34.93 40.35 43.45 42.83 41.97 42.08 40.76
30.90 30.86 31.99 31.95 31.83 31.73 30.47 29.20 28.42 28.38 28.49 29.37 31.04 33.80 33.88 32.45 32.09 32.04 32.61 33.12 34.47 35.23
30.30 29.23 29.44 29.37 30.76 31.38 29.84 28.96 28.46 29.06 29.01 28.48 29.32 31.98 32.50 32.43 30.18 29.62 29.23 30.47 32.33 32.29
29.73 27.98 27.34 27.53 28.52 29.68 29.86 28.77 28.49 27.55 27.62 29.77 29.54 32.18 30.99 29.66 28.92 27.27 27.50 28.98 29.70 31.83
28.31 27.31 26.32 26.50 26.71 26.86 27.21 26.26 26.32 26.03 26.61 26.89 28.74 29.96 32.27 30.74 27.18 26.51 26.39 26.91 27.69 29.57

GFSNIL_sfc_wetblb_114.txt.gz
Wetbulb
38.53 38.89 38.93 39.14 40.13 41.20 43.12 44.72 46.55 47.88 50.32 51.45 53.04 54.54 58.18 61.48 60.56 59.01 59.90 59.92 59.29 58.59
37.69 37.72 38.00 38.64 39.94 40.99 42.01 43.48 44.46 45.25 47.41 49.57 53.86 54.14 56.46 60.10 59.35 60.10 60.37 60.16 60.02 60.34
36.19 37.27 37.82 38.16 38.14 39.00 40.01 41.27 42.11 43.56 45.85 49.00 53.29 54.67 55.15 57.13 59.89 59.63 59.41 59.82 59.81 59.68
35.03 35.78 36.46 36.41 36.44 36.96 38.11 39.21 40.54 41.45 44.03 47.59 50.03 57.00 55.49 55.77 58.63 59.37 59.11 58.11 57.87 59.36
34.34 34.66 34.39 34.38 34.66 35.30 35.42 37.18 38.13 39.82 41.38 43.90 44.88 48.99 58.62 56.63 58.26 58.37 58.53 58.50 56.92 56.86
33.51 33.45 33.03 32.87 33.31 33.34 33.51 34.13 35.21 37.12 38.25 39.00 40.38 41.36 46.20 57.22 58.26 58.24 58.26 58.93 57.73 56.67
32.78 33.44 32.99 33.00 32.70 32.04 32.28 32.07 32.41 34.01 35.14 36.24 37.69 38.06 39.13 44.26 52.36 57.18 59.20 59.46 59.20 58.54
33.20 33.79 33.47 33.23 33.04 32.09 31.43 31.48 31.49 31.59 32.51 33.39 35.60 35.80 35.98 42.75 48.17 50.88 56.32 56.96 55.37 55.82
31.26 31.64 32.51 32.59 32.02 31.33 30.52 30.60 30.75 30.22 30.77 31.10 33.00 34.81 35.33 37.27 37.25 36.49 42.55 48.74 45.82 44.31
30.05 29.92 30.15 31.34 31.12 30.45 29.29 28.26 28.36 29.00 30.21 30.42 31.13 33.27 34.67 34.38 33.15 32.98 32.41 33.20 37.14 40.77
28.42 28.34 28.91 28.85 29.15 28.28 29.28 27.95 27.51 27.65 28.73 29.79 31.39 32.48 32.04 32.80 32.86 31.32 30.19 31.09 31.60 32.75
26.87 25.43 26.02 25.60 26.07 27.23 26.45 26.48 26.44 27.00 27.08 28.06 29.59 33.04 31.90 29.79 29.79 29.68 29.59 29.92 31.17 30.89
27.78 25.31 23.55 22.98 24.21 25.11 24.96 23.83 24.63 24.91 25.78 27.75 28.15 32.68 33.02 30.75 28.52 27.33 28.11 28.77 29.45 31.32
26.67 26.12 24.81 23.95 23.45 23.17 23.28 23.27 22.81 22.99 24.52 25.57 27.36 28.99 32.50 32.23 28.91 27.77 27.23 27.35 27.68 29.18

GFSNIL_sfc_wetblb_117.txt.gz
Wetbulb
37.16 37.45 37.81 38.19 38.39 39.12 39.70 40.55 42.40 43.31 44.08 45.27 47.28 48.95 50.78 53.04 53.43 56.66 60.22 58.79 56.96 57.26
36.63 36.72 36.56 37.00 37.89 37.84 38.49 39.20 40.54 40.95 42.33 43.41 45.06 47.55 50.29 53.35 53.82 55.23 59.44 59.79 58.16 57.72
35.84 36.17 36.10 36.12 35.34 35.49 36.25 37.39 38.10 38.94 40.34 41.85 43.59 46.37 47.87 50.51 54.68 54.72 58.84 59.33 58.94 58.77
35.07 35.21 34.44 34.29 34.20 34.01 34.88 35.42 35.75 36.77 38.41 39.34 39.88 42.18 42.72 44.38 54.48 54.00 55.79 58.79 58.18 57.96
34.39 34.50 33.80 32.76 32.91 33.37 33.12 34.03 34.13 35.21 36.00 36.64 37.51 38.87 39.59 40.40 43.94 54.72 55.51 57.69 57.42 56.97
33.68 33.27 33.02 32.62 32.54 33.06 32.59 32.71 33.15 33.59 33.76 34.31 35.97 36.33 37.17 38.24 40.75 45.57 56.19 57.10 57.63 57.45
31.67 32.32 32.55 32.35 31.69 31.19 30.99 31.05 31.28 32.45 33.16 33.44 34.33 34.21 35.45 36.44 41.55 46.59 51.94 56.79 58.07 58.09
31.15 30.79 31.53 31.13 30.86 29.85 29.73 30.20 30.32 30.49 31.58 32.61 32.70 32.83 33.35 35.22 36.95 38.80 39.91 40.17 45.20 51.69
29.50 29.07 29.24 29.66 28.46 28.98 27.99 27.97 28.34 28.38 29.49 30.51 32.28 33.40 33.29 33.69 33.48 33.92 34.45 35.08 35.75 38.15
26.23 25.81 25.87 26.88 27.00 26.21 26.52 26.76 25.82 26.06 27.10 28.54 31.36 33.45 33.13 32.17 31.49 31.33 31.75 31.88 33.77 33.83
25.45 24.21 23.77 23.62 23.29 23.99 23.78 23.61 23.95 24.51 25.68 26.76 29.64 33.12 32.79 31.37 30.02 29.67 29.78 30.54 31.12 31.84
25.51 23.28 22.40 20.56 20.71 21.91 22.26 22.21 22.91 24.19 24.99 25.63 27.13 32.35 32.58 30.56 29.05 28.40 28.25 29.41 30.19 30.57
26.25 23.34 21.51 20.43 19.84 20.47 20.78 21.41 23.24 23.86 25.10 26.58 25.29 29.92 31.61 30.40 28.55 27.00 27.20 28.05 28.59 30.72
25.31 24.32 23.07 22.80 22.35 21.83 21.23 21.57 21.33 22.76 24.64 24.85 25.32 25.75 29.00 29.19 26.59 26.03 25.80 26.13 26.44 28.00

GFSNIL_sfc_wetblb_120.txt.gz
Wetbulb
36.56 36.35 36.04 36.38 36.47 36.56 36.80 37.41 39.18 39.81 40.93 42.39 43.29 44.62 46.29 47.68 49.78 52.04 53.14 53.73 55.01 59.51
35.69 35.82 34.93 35.08 35.25 35.22 35.68 36.54 37.17 38.07 38.59 40.46 41.74 42.59 44.33 45.98 47.57 49.81 53.08 54.03 54.95 58.66
35.25 35.44 35.14 34.64 33.77 34.02 34.50 35.27 35.59 36.06 37.11 38.18 39.16 39.98 40.87 41.84 43.49 45.52 48.48 54.63 55.09 57.41
34.47 34.89 34.69 34.38 33.86 33.89 34.30 34.31 34.40 35.15 35.75 36.02 36.41 37.79 37.90 38.65 40.48 41.35 44.02 53.15 54.91 57.28
33.61 33.82 32.96 32.19 32.01 32.12 32.13 33.33 33.25 34.23 34.66 34.66 35.04 35.46 35.50 36.26 37.57 39.57 41.89 45.62 53.44 55.41
31.72 31.62 31.38 31.61 30.77 30.60 31.12 31.58 32.20 33.06 33.38 33.92 34.28 34.03 34.43 36.10 37.34 38.45 41.24 43.64 47.75 55.51
30.33 30.20 30.55 30.62 30.22 29.99 29.91 29.35 29.69 31.02 32.30 33.77 33.64 33.55 33.22 34.66 34.82 35.25 36.47 38.64 39.68 41.43
28.65 28.53 28.68 28.51 27.89 28.29 27.84 27.92 28.28 28.95 30.23 31.99 32.35 33.01 32.12 32.27 32.44 32.26 32.78 33.78 35.11 37.45
26.46 26.03 25.49 25.75 25.68 25.07 25.01 25.78 26.75 27.37 28.07 29.22 31.24 33.31 32.89 31.74 30.69 30.54 30.23 30.17 31.33 33.54
25.70 24.57 23.97 23.69 23.24 22.87 22.83 23.72 25.28 26.02 26.54 27.05 29.45 32.07 32.00 31.49 30.16 29.29 28.60 28.89 29.46 30.49
24.98 23.76 22.91 22.18 21.09 20.99 21.08 21.23 23.36 24.49 24.83 25.21 27.64 30.89 30.46 29.64 28.48 28.25 28.20 27.97 29.11 28.77
24.54 22.13 21.38 19.63 18.86 20.14 19.74 20.43 21.41 24.54 23.81 23.67 24.18 28.97 29.33 26.64 26.19 25.75 26.16 27.36 27.94 28.96
25.00 22.26 20.40 20.01 19.69 20.52 14.81 19.62 21.19 21.09 23.34 25.26 23.36 27.72 27.97 26.47 24.47 23.01 24.21 25.16 25.78 28.60
24.65 23.57 22.07 20.02 19.79 19.93 18.32 19.63 19.37 18.92 19.73 21.71 23.83 23.43 26.82 26.92 22.87 21.76 22.36 22.35 22.83 25.18

GFSNIL_sfc_wetblb_126.txt.gz
Wetbulb
39.02 38.78 38.49 37.95 37.32 37.36 37.78 37.93 39.27 39.58 40.15 40.86 41.63 42.13 42.58 43.19 45.13 47.38 47.48 47.43 47.66 50.61
37.42 37.68 36.71 37.62 37.65 36.54 37.02 37.27 37.92 38.18 38.45 39.05 39.64 40.28 40.64 41.01 42.43 43.34 45.07 46.28 46.60 47.06
36.49 36.47 36.86 37.21 36.09 36.03 36.21 36.24 36.00 36.39 37.25 37.05 38.08 38.31 38.94 39.22 40.68 40.63 42.03 43.31 44.60 45.82
36.18 36.37 36.16 35.72 35.02 35.55 36.15 35.58 35.04 35.40 35.93 35.77 36.29 36.95 37.31 37.14 37.29 37.24 38.06 39.00 39.92 42.14
35.27 35.64 35.63 35.17 34.84 35.13 34.94 35.77 34.81 35.13 35.12 35.65 35.54 35.74 35.24 35.01 35.28 34.79 34.40 35.03 36.55 35.92
35.37 35.11 34.60 34.81 34.77 34.54 35.11 34.91 33.94 34.26 34.03 34.33 34.80 34.74 35.16 34.81 34.51 34.41 34.36 34.16 34.23 34.05
34.42 34.24 33.99 34.37 34.39 34.47 34.37 33.99 33.62 33.61 33.83 34.31 33.88 33.02 33.68 34.99 34.61 34.13 34.12 34.24 33.93 33.57
33.22 33.28 33.35 33.01 33.21 33.64 34.15 33.88 34.05 33.92 34.41 34.54 32.99 31.47 31.79 34.46 34.49 33.73 32.45 33.49 33.19 33.71
32.01 31.95 31.29 32.10 32.52 32.51 32.24 31.96 32.03 31.91 32.58 32.52 31.49 28.99 29.93 31.94 32.72 31.80 30.81 30.49 31.68 32.20
30.19 29.68 29.46 30.09 30.14 30.18 30.10 30.47 29.04 29.53 30.44 29.96 30.11 28.33 28.57 29.88 31.06 30.44 29.74 29.49 29.38 29.92
28.84 28.13 28.39 28.39 27.60 28.20 29.08 27.95 27.55 26.88 27.81 28.69 28.59 26.84 27.05 28.68 31.22 31.05 29.30 28.81 29.04 29.00
27.32 26.20 26.60 26.40 26.96 27.60 27.86 27.61 26.91 26.63 25.57 25.76 25.97 25.90 25.55 27.52 30.84 30.38 28.64 28.91 28.53 27.22
27.19 25.86 25.27 26.85 26.67 27.17 27.68 27.00 27.51 26.42 25.67 24.54 24.65 24.52 24.65 25.74 26.72 26.76 27.15 27.17 27.17 24.16
27.88 26.29 26.74 27.14 27.53 26.88 26.33 26.30 25.67 26.10 26.02 25.07 24.55 24.52 23.90 23.13 23.67 24.65 24.49 24.34 24.03 24.42

GFSNIL_sfc_wetblb_129.txt.gz
Wetbulb
40.46 39.94 40.35 39.25 38.74 38.18 38.09 38.51 39.46 38.96 40.35 39.67 40.79 41.52 41.66 41.98 43.31 44.30 44.45 45.08 46.23 47.20
38.88 38.81 38.56 38.66 38.69 37.82 38.01 37.82 38.24 38.71 38.26 39.05 39.55 40.29 40.39 40.35 40.66 40.44 41.34 41.87 42.96 43.96
38.32 38.64 38.17 38.30 36.88 37.40 37.51 37.39 37.46 36.86 37.59 38.57 38.66 38.51 38.63 38.30 38.38 37.95 37.95 38.55 39.05 40.55
38.18 38.27 37.93 37.01 36.62 36.92 36.72 36.30 35.97 36.09 37.03 37.35 37.04 37.74 37.07 36.70 36.34 35.69 35.61 36.14 36.14 35.07
38.49 38.34 37.66 36.65 36.17 36.88 36.15 35.62 35.21 35.97 36.43 36.46 35.79 35.97 36.70 35.82 35.47 34.42 33.83 34.14 34.04 33.50
38.33 38.05 37.39 37.23 37.21 36.97 36.75 36.41 35.97 36.26 35.97 34.97 34.32 34.50 36.42 36.69 36.04 35.20 34.63 34.36 33.63 33.01
36.54 36.48 35.93 36.25 36.55 36.81 36.08 35.52 35.66 36.42 35.81 35.34 33.38 32.08 33.78 35.56 34.95 34.85 34.51 34.83 34.75 33.71
35.93 35.90 35.76 35.28 35.32 35.41 35.13 34.78 34.42 34.71 34.34 33.84 31.42 30.25 30.92 34.21 33.97 33.22 32.78 33.01 33.04 33.28
34.56 34.05 33.52 33.33 33.46 33.43 33.00 32.50 32.67 32.50 32.26 30.42 29.83 28.35 30.10 32.26 31.84 31.04 30.12 29.48 30.16 31.72
32.35 31.36 31.19 31.52 31.29 30.96 30.45 30.56 29.26 29.56 30.63 28.97 27.84 26.95 28.91 31.07 32.07 31.15 29.53 28.61 27.61 28.25
30.93 29.99 30.60 29.80 28.93 29.45 29.79 28.81 28.19 27.32 27.56 28.15 26.88 26.16 26.59 29.82 31.65 31.16 29.55 28.67 26.31 26.25
28.48 28.02 28.51 27.43 27.78 28.78 28.99 28.74 28.04 27.75 26.46 25.52 26.01 25.85 25.10 27.51 31.15 29.95 29.05 28.68 26.50 24.60
28.77 27.49 27.10 28.00 27.74 28.79 29.56 28.42 29.36 28.07 27.43 26.12 25.14 25.21 24.85 24.92 25.88 26.37 26.66 26.93 26.73 23.47
29.43 28.10 28.82 28.55 29.33 29.15 28.76 29.06 28.22 28.25 28.48 27.26 26.35 25.40 24.59 23.85 23.29 24.45 24.33 23.28 23.52 24.30